Calls for Service

Disclaimer: This information is not intended to be used as official crime data. This program does not provide information about all crimes, and excludes specific incidents such as sexual assaults and child abuse. The City of Conway Police Department makes every effort to produce and publish current and accurate information. No warranties, expressed or implied, are provided for the data herein, its use, or its interpretation. The services provided are for informational purposes only and should not be relied on for any type of legal action.

Loading calls...
Showing calls from previous 10 days
Call Number Case Number Address Call Time Incident Type
18-1202278 2100 WASHINGTON AV 2018-12-15 11:26:38.393 TRAFFIC PROBLEM-CONTROL
18-1202276 605 5TH AV 2018-12-15 11:21:11.140 REPOSSESSION
18-1202275 646 S HARKRIDER DR 2018-12-15 11:10:52.333 CHECKING PERSON
18-1202270 412 INGRAM ST 2018-12-15 10:33:15.637 SHOTS FIRED
18-1202267 18-14231 150 AMITY RD 2018-12-15 10:13:53.797 ACCIDENT - PRIVATE PROPERTY
18-1202265 18-14230 3650 GRESHAM DR 2018-12-15 10:09:02.183 BREAKING OR ENTERING
18-1202264 650 SKYLINE DR 2018-12-15 10:05:03.257 TRAFFIC PROBLEM-CONTROL
18-1202263 1155 SKYLINE DR 2018-12-15 10:00:44.780 TRAFFIC PROBLEM-CONTROL
18-1202262 18-14229 57 FAIRMONT DR 2018-12-15 09:57:52.867 BURGLARY
18-1202259 900 LOCUST AV 2018-12-15 09:32:05.317 TRAFFIC PROBLEM-CONTROL
18-1202257 575 5TH AV 2018-12-15 09:07:54.970 SUSPICIOUS PERSON
18-1202256 1600 HAIRSTON AV 2018-12-15 08:56:01.080 PROPERTY DAMAGE
18-1202254 18-14228 201 SKYLINE DR 2018-12-15 08:35:48.557 ACCIDENT - PRIVATE PROPERTY
18-1202253 1641 E SIEBENMORGEN RD 2018-12-15 08:32:25.180 ATTEMPT TO CONTACT
18-1202252 201 SKYLINE DR 2018-12-15 08:28:53.330 ATTEMPT TO CONTACT
18-1202247 1916 BRUCE ST 2018-12-15 07:53:30.530 DOMESTIC DISTURBANCE
18-1202246 801 HOGAN LN 2018-12-15 07:39:09.020 CITIZEN ASSIST
18-1202245 475 ROBINS ST 2018-12-15 07:11:54.683 ATTEMPT TO CONTACT
18-1202244 1155 SKYLINE DR 2018-12-15 06:47:58.067 CHECKING VEHICLE
18-1202243 18-14226 1641 E SIEBENMORGEN RD 2018-12-15 06:45:37.167 ACCIDENT - PROPERTY DAMAGE
18-1202242 89 MARY LN 2018-12-15 06:15:02.433 CHECK ON THE WELFARE
18-1202240 2302 COLLEGE AV 2018-12-15 05:42:38.753 TERRORISTIC THREATENING
18-1202239 125 I40EB 2018-12-15 04:29:16.947 ACCIDENT - PROPERTY DAMAGE
18-1202237 18-14224 2330 SANDERS ST 2018-12-15 03:17:27.993 INTOXICATED PERSON
18-1202236 300 VINTAGE CV 2018-12-15 03:04:12.237 LOUD NOISE-MUSIC
18-1202235 2302 COLLEGE AV 2018-12-15 02:59:05.963 DISTURBANCE
18-1202234 1065 CLAYTON ST 2018-12-15 02:46:35.260 CHECKING PERSON
18-1202231 199 WASSON RD 2018-12-15 00:49:14.667 ACCIDENT - PROPERTY DAMAGE
18-1202229 2145 RAINWOOD AV 2018-12-15 00:30:32.857 911 HANGUP CALL
18-1202228 1090 SKYLINE DR 2018-12-15 00:25:59.140 INTOXICATED PERSON
18-1202227 820 ELSINGER BLVD 2018-12-15 00:16:04.140 CHECKING PERSON
18-1202225 701 ROBINS ST 2018-12-15 00:04:27.193 CHECKING PERSON
18-1202224 475 ROBINS ST 2018-12-14 23:58:57.190 CHECKING PERSON
18-1202223 1601 HOGAN LN 2018-12-14 23:08:24.643 CHECK ON THE WELFARE
18-1202221 3055 PEBBLE BEACH DR 2018-12-14 22:58:55.307 LOUD NOISE-MUSIC
18-1202219 715 FRONT ST 2018-12-14 22:40:01.607 ALARM
18-1202218 18-14223 401 2ND ST 2018-12-14 22:39:24.917 OPEN DOOR/WINDOW/FENCE
18-1202217 2420 BROADVIEW AV 2018-12-14 22:37:55.747 CHECKING VEHICLE
18-1202215 18-14222 500 SOUTH GERMAN LN 2018-12-14 22:18:11.473 MISDEMEANOR WARRANT SERVICE
18-1202214 475 ROBINS ST 2018-12-14 22:11:42.953 CHECK ON THE WELFARE
18-1202212 18-14221 1750 ARDEN LN 2018-12-14 21:50:22.960 SUSPICIOUS VEHICLE
18-1202211 18-14219 475 ROBINS ST 2018-12-14 21:45:59.897 DOMESTIC DISTURBANCE
18-1202208 1500 WINTERBROOK DR 2018-12-14 21:28:19.080 ALARM
18-1202206 18-14218 3900 DAVE WARD DR 2018-12-14 21:26:47.993 SHOPLIFTING
18-1202205 1812 MARTIN ST 2018-12-14 21:22:13.883 SUSPICIOUS ACTIVITY
18-1202204 2250 KRYSTAL KREEK DR 2018-12-14 21:19:36.670 DISTURBANCE
18-1202202 18-14217 1 PAMELA LN 2018-12-14 21:07:36.937 ACCIDENT - PROPERTY DAMAGE
18-1202201 2840 DAVE WARD DR 2018-12-14 20:52:26.660 DOMESTIC DISTURBANCE
18-1202198 321 MITCHELL ST 2018-12-14 20:33:46.300 SHOTS FIRED
18-1202197 18-14216 1919 MARTIN ST 2018-12-14 20:33:42.540 SHOTS FIRED
18-1202196 2505 E OAK ST 2018-12-14 20:31:20.877 SUPPLEMENT REPORT CALL
18-1202195 2695 DAVE WARD DR 2018-12-14 20:22:07.340 ATTEMPT TO CONTACT
18-1202193 3100 IRBY DR 2018-12-14 20:16:17.527 SUSPICIOUS VEHICLE
18-1202191 2695 DAVE WARD DR 2018-12-14 20:05:52.137 ATTEMPT TO CONTACT
18-1202190 18-14215 1825 SUMMERBROOK DR 2018-12-14 19:57:52.500 ACCIDENT - PROPERTY DAMAGE
18-1202189 3735 MCCONNELL DR 2018-12-14 19:54:25.490 BARKING DOG COMPLAINT
18-1202186 2006 WIGGLE WORM RD 2018-12-14 19:38:25.010 SUPPLEMENT REPORT CALL
18-1202185 18-14214 530 S DONAGHEY AV 2018-12-14 19:26:36.380 ACCIDENT - PRIVATE PROPERTY
18-1202184 2535 DONAGHEY AV 2018-12-14 19:09:31.867 SUSPICIOUS PERSON
18-1202183 1919 MARTIN ST 2018-12-14 19:08:39.233 SHOTS FIRED
18-1202181 2550 PRINCE ST 2018-12-14 18:32:53.157 SUSPICIOUS PERSON
18-1202180 205 E OAK ST 2018-12-14 18:25:16.013 SUSPICIOUS PERSON
18-1202179 505 DAVE WARD DR 2018-12-14 18:18:15.050 ALARM - BANK
18-1202177 2455 WASHINGTON AV 2018-12-14 18:14:53.013 SUSPICIOUS PERSON
18-1202175 18-14213 2006 WIGGLE WORM RD 2018-12-14 18:11:24.207 HARASSMENT
18-1202174 600 ELSINGER BLVD 2018-12-14 17:57:42.010 THEFT OF PROPERTY
18-1202172 18-14211 601 DAVE WARD DR 2018-12-14 17:45:53.207 ACCIDENT - PROPERTY DAMAGE
18-1202170 13 TIMBERLANE TRL 2018-12-14 17:29:26.867 SUPPLEMENT REPORT CALL
18-1202169 1822 LEE AV 2018-12-14 17:28:35.603 INTOXICATED PERSON
18-1202168 18-14212 501 ELSINGER BLVD 2018-12-14 17:22:54.137 THEFT OF PROPERTY
18-1202167 25 BERNARD DR 2018-12-14 17:06:30.197 CITIZEN ASSIST
18-1202166 18-14210 955 SOUTH GERMAN LN 2018-12-14 16:57:03.480 BREAKING OR ENTERING
18-1202163 18-14205 1200 E DAVE WARD DR 2018-12-14 16:25:05.663 ACCIDENT - HIT AND RUN
18-1202162 18-14206 246 OAK ST 2018-12-14 16:24:54.337 ACCIDENT - PROPERTY DAMAGE
18-1202161 18-14207 2100 DAVE WARD DR 2018-12-14 16:18:40.360 ACCIDENT - PROPERTY DAMAGE
18-1202160 322 DAVIS ST 2018-12-14 16:16:20.957 SUSPICIOUS VEHICLE
18-1202159 820 E OAK ST 2018-12-14 16:07:30.090 ACCIDENT - HIT AND RUN
18-1202158 160 FARRIS RD 2018-12-14 15:43:40.990 ATTEMPT TO CONTACT
18-1202157 1105 PRAIRIE ST 2018-12-14 15:35:12.693 ATTEMPT TO CONTACT
18-1202155 3900 DAVE WARD DR 2018-12-14 15:22:25.393 CHECK ON THE WELFARE
18-1202154 18-14204 1101 OLD MORRILTON HWY 2018-12-14 15:16:02.223 ACCIDENT - PROPERTY DAMAGE
18-1202153 635 CHERUB DR 2018-12-14 14:59:10.130 ATTEMPT TO CONTACT
18-1202152 2401 CHRISTINA LN 2018-12-14 14:44:46.840 ATTEMPT TO CONTACT
18-1202151 18-14202 160 FARRIS RD 2018-12-14 14:42:13.010 ACCIDENT - PROPERTY DAMAGE
18-1202149 18-14203 2610 FLORENCE MATTISON DR 2018-12-14 14:13:58.707 HARASSING COMMUNICATIONS
18-1202147 410 6TH ST 2018-12-14 14:01:00.283 911 HANGUP CALL
18-1202146 1040 S AMITY RD 2018-12-14 13:56:00.857 ATTEMPT TO CONTACT
18-1202145 401 2ND ST 2018-12-14 13:50:49.887 REPOSSESSION
18-1202144 18-14200 1100 E DAVE WARD DR 2018-12-14 13:49:51.403 ACCIDENT - PROPERTY DAMAGE
18-1202143 18-14201 3430 IRBY DR 2018-12-14 13:47:36.213 SUSPICIOUS PERSON
18-1202142 2310 ROBINSON AV 2018-12-14 13:40:56.417 CHECKING VEHICLE
18-1202141 18-14209 2310 ROBINSON AV 2018-12-14 13:37:48.577 ABUSE
18-1202139 1971 HILLMAN ST 2018-12-14 13:24:49.777 ALARM
18-1202137 420 2ND ST 2018-12-14 13:22:43.823 REPOSSESSION
18-1202136 100 BROOKSIDE DR 2018-12-14 13:03:37.753 FRAUD
18-1202135 18-14197 504 E OAK ST 2018-12-14 13:00:05.873 ACCIDENT - PROPERTY DAMAGE
18-1202134 895 OAK ST 2018-12-14 12:48:18.897 TERRORISTIC THREATENING
18-1202133 407 MIDDLE RD 2018-12-14 12:46:10.103 ATTEMPT TO CONTACT
18-1202132 1908 SCOTT ST 2018-12-14 12:44:12.683 HARASSMENT
18-1202130 2695 DAVE WARD DR 2018-12-14 12:21:09.727 ATTEMPT TO CONTACT
18-1202129 18-14195 220 E OAK ST 2018-12-14 12:20:29.400 ACCIDENT - PROPERTY DAMAGE
18-1202127 2150 HARKRIDER ST 2018-12-14 12:13:29.683 ALARM - BANK
18-1202126 18-14196 625 DONAGHEY AV 2018-12-14 12:03:36.697 BURGLARY
18-1202125 18-14194 1200 E DAVE WARD DR 2018-12-14 12:03:25.463 ACCIDENT - PROPERTY DAMAGE
18-1202124 99 MACARTHUR DR 2018-12-14 11:59:46.393 CHECK ON THE WELFARE
18-1202123 1901 E OAK ST 2018-12-14 11:56:32.220 STALLED VEHICLE
18-1202122 2425 DAVE WARD DR 2018-12-14 11:55:25.500 ALARM
18-1202121 1601 HOGAN LN 2018-12-14 11:53:31.807 DOMESTIC DISTURBANCE
18-1202120 401 2ND ST 2018-12-14 11:47:27.547 SUPPLEMENT REPORT CALL
18-1202117 18-14193 600 ELSINGER BLVD 2018-12-14 11:11:21.953 AGENCY ASSIST
18-1202115 245 FARRIS RD 2018-12-14 11:10:08.353 VEHICLE TOW
18-1202114 1730 S SALEM RD 2018-12-14 11:06:39.017 SUSPICIOUS PACKAGE
18-1202112 1155 SKYLINE DR 2018-12-14 11:03:12.147 RECKLESS DRIVER
18-1202111 515 3RD AV 2018-12-14 10:59:41.327 SUSPICIOUS PERSON
18-1202110 11 STAGECOACH RD 2018-12-14 10:54:11.090 CHECK ON THE WELFARE
18-1202106 3105 CLEBURNE CV 2018-12-14 10:30:52.207 NO CONTACT ORDER VIOLATION
18-1202105 2401 CHRISTINA LN 2018-12-14 10:21:46.830 DISTURBANCE
18-1202104 2695 DAVE WARD DR 2018-12-14 10:21:34.257 ATTEMPT TO CONTACT
18-1202101 18-14188 650 SKYLINE DR 2018-12-14 10:02:44.333 ACCIDENT - PERSONAL INJURY
18-1202100 1210 DONAGHEY AV 2018-12-14 09:58:13.270 CRIMINAL MISCHIEF
18-1202098 1620 MIDDLE RD 2018-12-14 09:43:34.583 CHECK ON THE WELFARE
18-1202096 1105 SKYLINE DR 2018-12-14 09:35:31.543 CHECKING VEHICLE
18-1202095 375 YALE DR 2018-12-14 09:31:09.713 ATTEMPT TO CONTACT
18-1202094 18-14185 500 ELSINGER BLVD 2018-12-14 09:30:16.470 ACCIDENT - PRIVATE PROPERTY
18-1202087 801 ELSINGER BLVD 2018-12-14 08:59:23.753 SUPPLEMENT REPORT CALL
18-1202086 3230 PEBBLE BEACH DR 2018-12-14 08:39:42.083 DISTURBANCE
18-1202084 10 HAWTHORNE DR 2018-12-14 08:30:32.870 MISSING PERSON
18-1202082 955 SOUTH GERMAN LN 2018-12-14 08:18:16.490 CHECK ON THE WELFARE
18-1202078 1111 E OAK ST 2018-12-14 07:53:56.280 ALARM
18-1202076 298 PICKWICKET DR 2018-12-14 07:30:31.830 ALARM
18-1202075 715 2ND ST 2018-12-14 07:01:02.633 ALARM
18-1202074 18-14182 2510 PRINCE ST 2018-12-14 06:51:57.647 ACCIDENT - PRIVATE PROPERTY
18-1202072 1620 MIDDLE RD 2018-12-14 05:04:37.513 LOUD NOISE-MUSIC
18-1202071 675 AMITY RD 2018-12-14 03:53:10.743 ALARM
18-1202070 1000 E SIEBENMORGEN RD 2018-12-14 03:21:43.363 CHECKING VEHICLE
18-1202069 2715 PRINCE ST 2018-12-14 02:17:06.997 DISORDERLY CONDUCT
18-1202064 780 HARKRIDER ST 2018-12-14 01:47:28.597 CHECKING PERSON
18-1202063 810 ELSINGER BLVD 2018-12-14 01:17:25.657 CHECKING PERSON
18-1202062 1290 S AMITY RD 2018-12-14 01:04:31.740 CHECKING VEHICLE
18-1202061 2620 PRINCE ST 2018-12-14 01:02:16.053 CHECKING VEHICLE
18-1202060 955 SOUTH GERMAN LN 2018-12-14 00:42:45.490 SUSPICIOUS PERSON
18-1202059 3030 DONNELL RIDGE RD 2018-12-14 00:41:23.623 ALARM
18-1202055 18-14181 600 WESTHAVEN DR 2018-12-14 00:02:09.067 ACCIDENT - PROPERTY DAMAGE
18-1202054 18-14180 375 E OAK ST 2018-12-13 23:53:53.673 CHECKING PERSON
18-1202053 550 SKYLINE DR 2018-12-13 23:43:08.880 RECKLESS DRIVER
18-1202052 18-14179 189 SALEM RD 2018-12-13 23:35:37.760 SUSPICIOUS PERSON
18-1202051 18-14178 2150 E OAK ST 2018-12-13 23:20:35.890 CHECKING VEHICLE
18-1202050 18-14176 530 S DONAGHEY AV 2018-12-13 23:17:39.330 DOMESTIC DISTURBANCE
18-1202049 3430 IRBY DR 2018-12-13 23:04:42.230 UNKNOWN TROUBLE
18-1202048 985 CARSON CV 2018-12-13 23:01:33.910 ALARM
18-1202047 2730 DAVE WARD DR 2018-12-13 22:59:12.480 LOUD NOISE-MUSIC
18-1202043 130 HARKRIDER ST 2018-12-13 22:39:23.323 CHECK ON THE WELFARE
18-1202040 1299 MATTISON RD 2018-12-13 22:30:11.240 STALLED VEHICLE
18-1202039 1 CADRON SETTLEMENT PARK RD 2018-12-13 22:12:24.167 CHECKING BUILDING
18-1202038 18-14174 1410 ROBINS ST 2018-12-13 21:53:48.830 FRAUD
18-1202037 18-14172 2125 HARKRIDER ST 2018-12-13 21:41:42.773 THEFT OF PROPERTY
18-1202034 2006 WIGGLE WORM RD 2018-12-13 21:29:04.083 HARASSING COMMUNICATIONS
18-1202033 201 SKYLINE DR 2018-12-13 21:28:28.407 DOMESTIC DISTURBANCE
18-1202029 1050 ELLIS AV 2018-12-13 21:06:07.663 CRIMINAL MISCHIEF
18-1202028 18-14171 1632 DONAGHEY AV 2018-12-13 20:48:45.087 ACCIDENT - PROPERTY DAMAGE
18-1202026 1405 S DONAGHEY AV 2018-12-13 20:44:52.677 BARKING DOG COMPLAINT
18-1202025 799 FAIRVIEW ST 2018-12-13 20:42:55.893 SUSPICIOUS VEHICLE
18-1202022 18-14170 1835 OTT MEMORIAL BLVD 2018-12-13 20:24:34.003 HARASSING COMMUNICATIONS
18-1202019 1811 INDEPENDENCE AV 2018-12-13 20:00:58.197 ATTEMPT TO CONTACT
18-1202016 1510 HATHAWAY DR 2018-12-13 19:53:55.437 SUSPICIOUS VEHICLE
18-1202015 295 HELEN ST 2018-12-13 19:44:29.890 ALARM
18-1202014 2300 PRINCE ST 2018-12-13 19:39:14.580 TRAFFIC PROBLEM-CONTROL
18-1202013 2018-12-13 19:36:10.017 ATTEMPT TO CONTACT
18-1202010 1105 PRAIRIE ST 2018-12-13 19:28:57.057 STALLED VEHICLE
18-1202007 1985 RICH SMITH LN 2018-12-13 19:11:05.163 FELONY WARRANT SERVICE
18-1202005 18-14168 1200 DEER ST 2018-12-13 19:05:49.560 ACCIDENT - PROPERTY DAMAGE
18-1202004 2965 DALLAS LP 2018-12-13 19:01:58.960 CIVIL MATTER
18-1202003 18-14169 1266 S AMITY RD 2018-12-13 18:55:19.913 ACCIDENT - PRIVATE PROPERTY
18-1202002 207 WILLOW ST 2018-12-13 18:21:51.210 ATTEMPT TO CONTACT
18-1202001 18-14167 1025 S AMITY RD 2018-12-13 18:16:28.760 ACCIDENT - PROPERTY DAMAGE
18-1201997 18-14164 2500 OLD MORRILTON HWY 2018-12-13 17:24:30.060 ACCIDENT - PROPERTY DAMAGE
18-1201996 1305 JOSIE REA ST 2018-12-13 17:24:08.640 ALARM
18-1201995 18-14166 525 SKYLINE DR 2018-12-13 17:18:27.157 FRAUD
18-1201994 601 DAVE WARD DR 2018-12-13 17:08:04.607 STALLED VEHICLE
18-1201993 801 SOUTH GERMAN LN 2018-12-13 17:06:00.603 CHECK ON THE WELFARE
18-1201992 650 DAVE WARD DR 2018-12-13 17:01:09.430 STALLED VEHICLE
18-1201991 13 TIMBERLANE TRL 2018-12-13 16:50:22.980 SUPPLEMENT REPORT CALL
18-1201990 2590 DONAGHEY AV 2018-12-13 16:41:52.407 VEHICLE TOW
18-1201989 1620 JASMINE 2018-12-13 16:35:25.357 SUPPLEMENT REPORT CALL
18-1201988 2600 DAVE WARD DR 2018-12-13 16:32:46.283 REPOSSESSION
18-1201987 206 OLIVER ST 2018-12-13 16:19:54.333 DOMESTIC DISTURBANCE
18-1201985 705 E SIEBENMORGEN RD 2018-12-13 16:09:47.197 FOUND PROPERTY
18-1201984 18-14162 710 CRAIN DR 2018-12-13 15:55:54.763 THEFT OF PROPERTY
18-1201983 18-14161 13 TIMBERLANE TRL 2018-12-13 15:44:29.037 THEFT OF PROPERTY
18-1201982 18-14163 603 5TH AV 2018-12-13 15:41:27.187 BURGLARY
18-1201981 18-14159 525 SKYLINE DR 2018-12-13 15:39:31.730 BREAKING OR ENTERING
18-1201980 500 LOCUST AV 2018-12-13 15:33:21.853 STALLED VEHICLE
18-1201978 18-14160 707 ROBINS ST 2018-12-13 15:30:58.460 ATTEMPT TO CONTACT
18-1201977 18-14158 2425 DAVE WARD DR 2018-12-13 15:26:51.357 ACCIDENT - PROPERTY DAMAGE
18-1201975 1710 S AMITY RD 2018-12-13 15:16:31.927 ALARM
18-1201972 198 EAST HWY 286 2018-12-13 15:02:39.900 SUSPICIOUS PACKAGE
18-1201969 1910 HILLMAN ST 2018-12-13 14:40:57.860 SHOTS FIRED
18-1201968 18-14155 1901 E OAK ST 2018-12-13 14:40:43.650 ACCIDENT - PERSONAL INJURY
18-1201966 2840 DAVE WARD DR 2018-12-13 14:34:10.063 CIVIL MATTER
18-1201965 124 I40EB 2018-12-13 14:21:10.547 AGENCY ASSIST
18-1201964 601 ELSINGER BLVD 2018-12-13 14:15:38.017 ATTEMPT TO CONTACT
18-1201962 18-14154 1256 HAMILTON ST 2018-12-13 14:02:27.020 DISTURBANCE
18-1201961 18-14157 824 SALEM RD 2018-12-13 14:00:49.003 FIRE DEPT ASSIST
18-1201960 824 SALEM RD 2018-12-13 13:59:56.463 FIRE-SQUAD CALLOUT
18-1201959 18-14153 501 ELSINGER BLVD 2018-12-13 13:45:50.897 FIRE DEPT ASSIST
18-1201958 501 ELSINGER BLVD 2018-12-13 13:43:28.873 FIRE-SQUAD CALLOUT
18-1201956 1355 S HARKRIDER DR 2018-12-13 13:39:24.593 CIVIL MATTER
18-1201955 3900 DAVE WARD DR 2018-12-13 13:30:04.897 STALLED VEHICLE
18-1201954 2840 DAVE WARD DR 2018-12-13 13:28:59.000 CIVIL STAND BY
18-1201953 200 S HARKRIDER DR 2018-12-13 13:26:57.447 SUPPLEMENT REPORT CALL
18-1201951 1901 E 2018-12-13 13:25:12.020 TRAFFIC PROBLEM-CONTROL
18-1201950 18-14152 1040 S AMITY RD 2018-12-13 13:23:58.593 ACCIDENT - PRIVATE PROPERTY
18-1201947 126 OAK ST 2018-12-13 12:40:14.593 THEFT OF PROPERTY
18-1201946 18-14149 475 ROBINS ST 2018-12-13 12:16:15.620 BURGLARY
18-1201945 18-14148 801 ELSINGER BLVD 2018-12-13 12:16:11.423 BREAKING OR ENTERING
18-1201944 3100 IRBY DR 2018-12-13 12:14:30.570 ATTEMPT TO CONTACT
18-1201943 475 ROBINS ST 2018-12-13 12:14:07.513 ATTEMPT TO CONTACT
18-1201941 18-14151 2925 PRINCE ST 2018-12-13 12:05:24.023 FORGERY
18-1201940 18-14150 605 1ST AV 2018-12-13 11:50:13.153 SUSPICIOUS PERSON
18-1201937 1105 PRAIRIE ST 2018-12-13 11:12:06.850 ATTEMPT TO CONTACT
18-1201935 1310 PRINCE ST 2018-12-13 10:58:34.247 OPEN DOOR/WINDOW/FENCE
18-1201931 1899 PEARCE ST 2018-12-13 10:18:08.570 SHOTS FIRED
18-1201930 1985 RICH SMITH LN 2018-12-13 10:10:18.620 TERRORISTIC THREATENING
18-1201928 18-14146 2590 DONAGHEY AV 2018-12-13 09:42:10.640 DISTURBANCE
18-1201927 855 SALEM RD 2018-12-13 09:35:06.710 SUPPLEMENT REPORT CALL
18-1201926 18-14144 401 2ND ST 2018-12-13 09:33:14.793 CRIMINAL MISCHIEF
18-1201925 2018-12-13 09:29:07.067 ATTEMPT TO CONTACT
18-1201922 18-14143 1155 DAVE WARD DR 2018-12-13 09:17:05.753 ACCIDENT - PROPERTY DAMAGE
18-1201921 3847 DAVE WARD DR 2018-12-13 09:13:13.437 SUSPICIOUS VEHICLE
18-1201918 18-14142 4865 CANAL PL 2018-12-13 09:00:38.007 THEFT OF PROPERTY
18-1201917 18-14141 600 ELSINGER BLVD 2018-12-13 08:59:10.163 FRAUD
18-1201916 62 GRIFFITH ST 2018-12-13 08:54:28.180 ATTEMPT TO CONTACT
18-1201908 1360 TORREYSON ST 2018-12-13 07:49:50.333 FIRE DEPT ASSIST
18-1201906 1099 SIEBENMORGEN RD 2018-12-13 07:23:36.357 PURSUIT DRILL
18-1201905 18-14140 201 SKYLINE DR 2018-12-13 07:01:03.867 ACCIDENT - PROPERTY DAMAGE
18-1201904 18-14139 600 SKYLINE DR 2018-12-13 06:48:10.327 ACCIDENT - PROPERTY DAMAGE
18-1201903 480 EXCHANGE AV 2018-12-13 06:30:08.857 ATTEMPT TO CONTACT
18-1201899 1090 SKYLINE DR 2018-12-13 04:29:25.027 AGENCY ASSIST
18-1201897 18-14138 1775 OLD MORRILTON HWY 2018-12-13 03:54:18.210 CHECKING PERSON
18-1201896 1119 GUM ST 2018-12-13 03:19:11.087 CHECKING BUILDING
18-1201895 3045 PEBBLE BEACH DR 2018-12-13 03:07:43.390 CHECKING VEHICLE
18-1201894 606 4TH AV 2018-12-13 03:04:17.940 CHECKING VEHICLE
18-1201893 1375 OLD MORRILTON HWY 2018-12-13 02:56:28.660 CHECKING VEHICLE
18-1201892 801 4TH AV 2018-12-13 02:55:49.800 CHECKING VEHICLE
18-1201891 1065 CLAYTON ST 2018-12-13 02:49:43.793 CHECKING BUILDING
18-1201890 3045 PEBBLE BEACH DR 2018-12-13 02:22:34.047 LOUD NOISE-MUSIC
18-1201889 18-14137 207 WILLOW ST 2018-12-13 01:57:40.470 DOMESTIC DISTURBANCE
18-1201888 99 OAK GROVE DR 2018-12-13 01:36:39.677 CHECKING VEHICLE
18-1201887 245 OAK ST 2018-12-13 01:30:16.060 CHECKING VEHICLE
18-1201886 601 ELSINGER BLVD 2018-12-13 01:18:54.977 ALARM
18-1201885 103 OAK ST 2018-12-13 01:08:17.420 CHECKING PERSON
18-1201880 18-14136 1155 SKYLINE DR 2018-12-13 00:00:35.197 CHECKING VEHICLE
18-1201879 601 ELSINGER BLVD 2018-12-13 00:00:02.547 ALARM
18-1201878 260 SALEM RD 2018-12-12 23:57:37.217 CHECKING VEHICLE
18-1201877 1725 STEEPLE LN 2018-12-12 23:41:10.110 CHECKING VEHICLE
18-1201875 1505 OLD MORRILTON HWY 2018-12-12 23:17:31.410 CHECKING VEHICLE
18-1201874 2018-12-12 23:11:18.083 RECOVERED VEHICLE
18-1201873 103 OAK ST 2018-12-12 22:38:25.620 SUSPICIOUS PERSON
18-1201871 3430 IRBY DR 2018-12-12 22:05:34.437 SHOTS FIRED
18-1201870 18-14135 3430 IRBY DR 2018-12-12 22:05:28.023 SHOTS FIRED
18-1201869 3050 COLLEGE AV 2018-12-12 21:57:00.040 CHECK ON THE WELFARE
18-1201867 2204 STOUT ST 2018-12-12 21:51:01.693 FIRE DEPT ASSIST
18-1201865 530 S DONAGHEY AV 2018-12-12 21:38:23.220 ATTEMPT TO CONTACT
18-1201862 18-14133 1305 DAVE WARD DR 2018-12-12 21:03:32.993 FIGHT
18-1201861 1455 ARDEN LN 2018-12-12 20:35:23.950 ALARM
18-1201858 18-14131 400 CENTRAL LANDING BLVD 2018-12-12 20:18:39.997 ACCIDENT - PROPERTY DAMAGE
18-1201856 4095 PRINCE ST 2018-12-12 19:52:43.180 ATTEMPT TO CONTACT
18-1201855 100 BROOKSIDE DR 2018-12-12 19:51:23.900 UNKNOWN TROUBLE
18-1201852 513 3RD ST 2018-12-12 19:07:48.573 ATTEMPT TO CONTACT
18-1201850 1220 E OAK ST 2018-12-12 18:44:37.550 CIVIL MATTER
18-1201849 705 4TH ST 2018-12-12 17:44:50.453 CHECK ON THE WELFARE
18-1201848 18-14128 1720 OLD MORRILTON HWY 2018-12-12 17:41:53.567 ACCIDENT - PRIVATE PROPERTY
18-1201847 3100 IRBY DR 2018-12-12 17:35:48.277 THEFT OF PROPERTY
18-1201846 3100 IRBY DR 2018-12-12 17:33:49.903 FRAUD
18-1201844 18-14129 513 3RD ST 2018-12-12 17:32:22.073 BATTERY REPORT
18-1201843 18-14127 702 S ELIZABETH ST 2018-12-12 17:23:20.210 BURGLARY
18-1201841 18-14126 601 ELSINGER BLVD 2018-12-12 17:04:25.713 SHOPLIFTING
18-1201839 501 ELSINGER BLVD 2018-12-12 16:53:02.950 SUPPLEMENT REPORT CALL
18-1201838 2029 DUNCAN ST 2018-12-12 16:51:50.380 FOUND PROPERTY
18-1201835 2106 BROADVIEW AV 2018-12-12 16:49:13.130 SUSPICIOUS ACTIVITY
18-1201834 1499 MANOR ST 2018-12-12 16:48:01.247 SUPPLEMENT REPORT CALL
18-1201833 18-14124 2500 DAVE WARD DR 2018-12-12 16:43:37.310 FRAUD
18-1201832 1600 E OAK ST 2018-12-12 16:40:44.633 ENDANGERING WELFARE OF MINOR
18-1201830 1131 FRONT ST 2018-12-12 16:27:52.650 CHECK ON THE WELFARE
18-1201829 18-14123 501 ELSINGER BLVD 2018-12-12 16:23:21.053 LOST PROPERTY
18-1201828 2106 BROADVIEW AV 2018-12-12 16:20:53.290 SUSPICIOUS ACTIVITY
18-1201825 831 NUTTERS CHAPEL RD 2018-12-12 16:11:46.277 ATTEMPT TO CONTACT
18-1201824 18-14120 2425 SANDERS ST 2018-12-12 16:10:11.383 THEFT OF PROPERTY
18-1201822 170 MERLOT DR 2018-12-12 16:03:04.520 ALARM
18-1201820 475 ROBINS ST 2018-12-12 15:54:14.043 ATTEMPT TO CONTACT
18-1201818 604 ROBINS ST 2018-12-12 15:46:08.960 ATTEMPT TO CONTACT
18-1201817 18-14117 2500 DAVE WARD DR 2018-12-12 15:38:26.450 FRAUD
18-1201816 18-14115 601 ELSINGER BLVD 2018-12-12 15:37:07.733 SHOPLIFTING
18-1201815 1604 TYLER ST 2018-12-12 15:34:00.253 TRESPASSING
18-1201813 18-14114 700 FARRIS RD 2018-12-12 15:32:14.173 ACCIDENT - PROPERTY DAMAGE
18-1201810 601 DAVE WARD DR 2018-12-12 15:27:51.843 STALLED VEHICLE
18-1201808 1610 PRINCE ST 2018-12-12 15:24:53.100 DISTURBANCE
18-1201807 1805 OLD MILITARY RD 2018-12-12 15:24:39.417 CIVIL MATTER
18-1201806 18-14116 1306 BELLAIRE DR 2018-12-12 15:21:56.147 FRAUD
18-1201799 505 CADRON GAP RD 2018-12-12 14:50:54.273 ALARM
18-1201794 18-14113 150 E OAK ST 2018-12-12 14:20:29.410 ACCIDENT - PRIVATE PROPERTY
18-1201793 650 SKYLINE DR 2018-12-12 14:20:22.110 STALLED VEHICLE
18-1201792 300 S DONAGHEY AV 2018-12-12 14:14:26.837 ATTEMPT TO CONTACT
18-1201791 2300 PRINCE ST 2018-12-12 14:05:13.113 ACCIDENT - PROPERTY DAMAGE
18-1201790 505 2ND ST 2018-12-12 13:59:32.457 ATTEMPT TO CONTACT
18-1201788 540 UNITED DR 2018-12-12 13:50:34.663 ALARM - BANK
18-1201786 18-14112 1499 MANOR ST 2018-12-12 13:42:43.590 BURGLARY
18-1201781 1155 SKYLINE DR 2018-12-12 13:15:39.630 RECKLESS DRIVER
18-1201780 1105 PRAIRIE ST 2018-12-12 13:10:55.693 SERVING SUBPOENA
18-1201779 511 3RD AV 2018-12-12 13:09:44.450 ATTEMPT TO CONTACT
18-1201777 1060 HOGAN LN 2018-12-12 13:04:47.033 ATTEMPT TO CONTACT
18-1201773 18-14110 401 2ND ST 2018-12-12 12:22:16.777 TERRORISTIC THREATENING
18-1201772 1815 SUMMERBROOK DR 2018-12-12 12:22:13.160 ALARM
18-1201771 18-14109 461 ELSINGER BLVD 2018-12-12 12:21:09.200 FRAUD
18-1201769 18-14108 1845 OLD MORRILTON HWY 2018-12-12 12:17:36.710 CHECKING PERSON
18-1201767 10 LOWER RIDGE RD 2018-12-12 12:07:33.333 SUSPICIOUS ACTIVITY
18-1201766 1025 E SIEBENMORGEN RD 2018-12-12 12:05:32.170 CHECKING PERSON
18-1201765 2125 HARKRIDER ST 2018-12-12 11:57:57.337 SUPPLEMENT REPORT CALL
18-1201764 18-14107 1501 HOGAN LN 2018-12-12 11:53:33.180 ACCIDENT - PROPERTY DAMAGE
18-1201761 18-14105 816 HOGAN LN 2018-12-12 11:33:23.493 THEFT OF PROPERTY
18-1201760 2125 MARBLE DR 2018-12-12 11:31:07.913 SUPPLEMENT REPORT CALL
18-1201759 18-14106 3900 DAVE WARD DR 2018-12-12 11:29:52.427 ACCIDENT - PRIVATE PROPERTY
18-1201758 1826 HOGAN LN 2018-12-12 11:13:12.403 FOUND PROPERTY
18-1201757 475 ROBINS ST 2018-12-12 11:01:28.720 ATTEMPT TO CONTACT
18-1201756 130 HARKRIDER ST 2018-12-12 10:46:10.253 DISTURBANCE
18-1201755 1601 HOGAN LN 2018-12-12 10:43:27.623 ATTEMPT TO CONTACT
18-1201754 18-14104 25 NABCO DR 2018-12-12 10:43:13.130 ACCIDENT - PRIVATE PROPERTY
18-1201753 18-14103 1155 SKYLINE DR 2018-12-12 10:42:00.530 ACCIDENT - PRIVATE PROPERTY
18-1201752 207 WILLOW ST 2018-12-12 10:34:22.823 SUPPLEMENT REPORT CALL
18-1201751 18-14102 2300 PRINCE ST 2018-12-12 10:33:39.253 ACCIDENT - PRIVATE PROPERTY
18-1201749 635 DAVE WARD DR 2018-12-12 10:25:35.263 INTOXICATED DRIVER
18-1201748 18-14100 1105 PRAIRIE ST 2018-12-12 10:18:33.143 FOUND PROPERTY
18-1201747 2125 HARKRIDER ST 2018-12-12 10:11:54.703 THEFT OF PROPERTY
18-1201745 18-14101 2125 HARKRIDER ST 2018-12-12 09:59:57.270 THEFT OF PROPERTY
18-1201740 880 CORDOBA DR 2018-12-12 09:16:41.130 ALARM
18-1201734 2018-12-12 08:57:07.310 MISSING PERSON
18-1201733 530 S DONAGHEY AV 2018-12-12 08:52:25.743 CIVIL STAND BY
18-1201730 1171 E OAK ST 2018-12-12 08:50:23.067 CHECKING PERSON
18-1201729 100 LEE ANDREW LN 2018-12-12 08:40:27.630 RECKLESS DRIVER
18-1201728 4040 RILEY RENEE CV 2018-12-12 08:37:26.280 ALARM
18-1201724 1840 S SALEM RD 2018-12-12 08:13:09.460 CHECK ON THE WELFARE
18-1201723 2001 FLORENCE MATTISON DR 2018-12-12 08:08:26.927 RECKLESS DRIVER
18-1201722 2425 DAVE WARD DR 2018-12-12 07:52:19.803 SUSPICIOUS VEHICLE
18-1201721 1825 MILESTONE DR 2018-12-12 07:41:07.273 CIVIL STAND BY
18-1201720 18-14099 2164 HARKRIDER ST 2018-12-12 07:33:24.297 FORGERY
18-1201719 2200 MEADOWLAKE RD 2018-12-12 07:17:45.347 REPOSSESSION
18-1201718 3430 IRBY DR 2018-12-12 07:15:45.260 REPOSSESSION
18-1201717 803 HARKRIDER ST 2018-12-12 06:35:34.793 ALARM
18-1201716 18-14098 3200 DAVE WARD DR 2018-12-12 05:45:44.740 ACCIDENT - PROPERTY DAMAGE
18-1201713 18-14097 2507 W SIMMS ST 2018-12-12 04:47:28.883 DEATH CALL
18-1201710 2200 MEADOWLAKE RD 2018-12-12 01:14:55.370 UNKNOWN TROUBLE
18-1201709 805 AMITY RD 2018-12-12 01:06:21.147 AGENCY ASSIST
18-1201707 2135 HARKRIDER ST 2018-12-12 00:43:46.563 ALARM
18-1201704 1310 BRUCE ST 2018-12-11 23:50:31.747 CHECKING BUILDING
18-1201703 399 SHAW ST 2018-12-11 23:27:30.490 SUSPICIOUS VEHICLE
18-1201702 301 DONAGHEY AV 2018-12-11 23:24:24.320 RECKLESS DRIVER
18-1201700 18-14095 89 MARY LN 2018-12-11 22:36:26.617 DOMESTIC DISTURBANCE
18-1201699 1985 RICH SMITH LN 2018-12-11 22:33:43.847 DISTURBANCE
18-1201697 1605 E OAK ST 2018-12-11 22:17:34.417 ALARM
18-1201694 1025 S DONAGHEY AV 2018-12-11 21:53:17.173 REPOSSESSION
18-1201693 18-14093 3900 DAVE WARD DR 2018-12-11 21:27:28.937 TERRORISTIC THREATENING
18-1201692 786 ELSINGER BLVD 2018-12-11 21:20:38.170 INTOXICATED PERSON
18-1201691 18-14094 1 CADRON SETTLEMENT PARK RD 2018-12-11 20:55:04.363 CHECKING VEHICLE
18-1201690 599 4TH AV 2018-12-11 20:51:55.823 ALARM
18-1201689 18-14092 1525 CLIFTON ST 2018-12-11 20:49:24.347 DOMESTIC DISTURBANCE
18-1201688 18-14091 2560 DONAGHEY AV 2018-12-11 20:38:24.530 ACCIDENT - PRIVATE PROPERTY
18-1201687 813 OAK ST 2018-12-11 20:26:07.320 ALARM
18-1201686 5740 GRAND TETON LN 2018-12-11 20:25:31.003 THEFT OF PROPERTY
18-1201685 1595 SOUTH GERMAN LN 2018-12-11 20:08:32.880 CHECKING VEHICLE
18-1201683 2560 DONAGHEY AV 2018-12-11 19:51:20.067 ACCIDENT - PRIVATE PROPERTY
18-1201678 831 NUTTERS CHAPEL RD 2018-12-11 19:11:34.763 BARKING DOG COMPLAINT
18-1201677 2501 DAVE WARD DR 2018-12-11 19:10:15.487 RECKLESS DRIVER
18-1201676 500 SOUTH GERMAN LN 2018-12-11 19:01:24.413 MISDEMEANOR WARRANT SERVICE
18-1201675 18-14090 3900 DAVE WARD DR 2018-12-11 18:49:38.593 LOST PROPERTY
18-1201674 18-14089 151 SKYLINE DR 2018-12-11 18:47:27.147 ACCIDENT - PROPERTY DAMAGE
18-1201673 18-14088 100 BROOKSIDE DR 2018-12-11 18:43:50.103 LOST CHILD-FOUND CHILD
18-1201672 100 BROOKSIDE DR 2018-12-11 18:37:49.167 911 HANGUP CALL
18-1201671 18-14086 1299 WINFIELD ST 2018-12-11 18:14:47.130 ACCIDENT - PROPERTY DAMAGE
18-1201670 300 S DONAGHEY AV 2018-12-11 18:13:44.373 DOMESTIC DISTURBANCE
18-1201669 1405 S DONAGHEY AV 2018-12-11 17:58:02.037 ROBBERY
18-1201668 1423 DAVIS ST 2018-12-11 17:57:23.380 CHECK ON THE WELFARE
18-1201667 18-14085 500 OAK ST 2018-12-11 17:52:45.263 ACCIDENT - PROPERTY DAMAGE
18-1201665 1300 MILL ST 2018-12-11 17:43:09.357 CHECKING PERSON
18-1201663 18-14087 3740 MARLEIGH DR 2018-12-11 17:37:13.083 CHECK ON THE WELFARE
18-1201661 124 I40WB 2018-12-11 17:20:46.087 CHECK ON THE WELFARE
18-1201660 3700 DAVE WARD DR 2018-12-11 17:20:09.833 CHECK ON THE WELFARE
18-1201659 18-14084 1209 E OAK ST 2018-12-11 17:19:12.270 ACCIDENT - PERSONAL INJURY
18-1201658 1131 E SIEBENMORGEN RD 2018-12-11 17:11:09.433 RECKLESS DRIVER
18-1201657 18-14082 855 AMITY RD 2018-12-11 17:04:45.097 FRAUD
18-1201654 18-14083 601 ELSINGER BLVD 2018-12-11 16:46:07.730 THEFT OF PROPERTY
18-1201653 600 ELSINGER BLVD 2018-12-11 16:44:46.813 SHOPLIFTING
18-1201652 2550 PRINCE ST 2018-12-11 16:43:15.087 FIGHT
18-1201651 18-14080 150 SKYLINE DR 2018-12-11 16:33:29.290 ACCIDENT - PROPERTY DAMAGE
18-1201650 18-14081 2915 DAVE WARD DR 2018-12-11 16:25:57.123 FRAUD
18-1201646 18-14079 1405 E OAK ST 2018-12-11 16:04:37.457 ATTEMPT TO CONTACT
18-1201644 18-14078 2001 SALEM RD 2018-12-11 15:58:18.330 ACCIDENT - PROPERTY DAMAGE
18-1201643 420 2ND AV 2018-12-11 15:55:24.403 FIGHT
18-1201642 2510 PRINCE ST 2018-12-11 15:50:44.460 FIGHT
18-1201641 600 E DAVE WARD DR 2018-12-11 15:46:55.203 ATTEMPT TO CONTACT
18-1201640 501 ELSINGER BLVD 2018-12-11 15:45:43.630 ENDANGERING WELFARE OF MINOR
18-1201638 911 S HARKRIDER DR 2018-12-11 15:32:50.477 ACCIDENT - PERSONAL INJURY
18-1201637 1105 PRAIRIE ST 2018-12-11 15:28:37.897 ATTEMPT TO CONTACT
18-1201636 18-14077 420 WILLOW ST 2018-12-11 15:27:58.133 HARASSMENT
18-1201635 1405 S DONAGHEY AV 2018-12-11 15:22:09.270 DOMESTIC DISTURBANCE
18-1201632 1200 DAVE WARD DR 2018-12-11 14:54:20.663 ACCIDENT - PRIVATE PROPERTY
18-1201631 18-14076 2599 WASHINGTON AV 2018-12-11 14:46:46.720 ACCIDENT - PROPERTY DAMAGE
18-1201630 18-14074 1155 SKYLINE DR 2018-12-11 14:44:47.970 CHECKING PERSON
18-1201627 404 S CENTER ST 2018-12-11 14:40:02.053 CHECK ON THE WELFARE
18-1201626 18-14073 600 SKYLINE DR 2018-12-11 14:35:59.037 ACCIDENT - PERSONAL INJURY
18-1201625 18-14072 1155 SKYLINE DR 2018-12-11 14:07:58.183 ACCIDENT - PRIVATE PROPERTY
18-1201621 18-14071 550 E DAVE WARD DR 2018-12-11 13:36:51.660 ACCIDENT - PROPERTY DAMAGE
18-1201619 404 OAK ST 2018-12-11 13:26:55.847 ALARM - BANK
18-1201617 1423 HAMILTON ST 2018-12-11 13:18:54.413 CHECKING VEHICLE
18-1201615 100 BROOKSIDE DR 2018-12-11 13:14:07.360 ATTEMPT TO CONTACT
18-1201614 603 S ELIZABETH ST 2018-12-11 13:07:23.567 911 HANGUP CALL
18-1201613 2200 MEADOWLAKE RD 2018-12-11 12:54:07.953 ATTEMPT TO CONTACT
18-1201612 18-14069 207 WILLOW ST 2018-12-11 12:48:11.570 THEFT OF PROPERTY
18-1201609 2018-12-11 12:34:23.507 ATTEMPT TO CONTACT
18-1201607 1105 PRAIRIE ST 2018-12-11 12:13:58.050 ATTEMPT TO CONTACT
18-1201602 18-14067 450 ROBINS ST 2018-12-11 11:55:45.597 BATTERY REPORT
18-1201601 2400 DONAGHEY AV 2018-12-11 11:53:25.600 CHECKING VEHICLE
18-1201596 18-14066 3900 DAVE WARD DR 2018-12-11 11:19:15.527 ACCIDENT - PRIVATE PROPERTY
18-1201594 18-14065 1304 OAK ST 2018-12-11 11:18:09.740 ACCIDENT - PROPERTY DAMAGE
18-1201590 116 HARKRIDER ST 2018-12-11 11:00:16.630 CHECK ON THE WELFARE
18-1201589 2015 HUTTO ST 2018-12-11 10:58:08.320 BREAKING OR ENTERING
18-1201587 18-14064 1422 CALDWELL ST 2018-12-11 10:46:33.633 ACCIDENT - PRIVATE PROPERTY
18-1201586 450 E DAVE WARD DR 2018-12-11 10:40:34.443 BATTERY REPORT
18-1201583 18-14063 1725 HOSTA 2018-12-11 10:34:31.840 LOST PROPERTY
18-1201581 3045 PEBBLE BEACH DR 2018-12-11 10:21:28.827 ATTEMPT TO CONTACT
18-1201578 801 SOUTH GERMAN LN 2018-12-11 09:18:54.440 ATTEMPT TO CONTACT
18-1201577 1499 MANOR ST 2018-12-11 09:17:43.773 SUPPLEMENT REPORT CALL
18-1201575 1901 HOGAN LN 2018-12-11 09:15:35.060 FIRE DEPT ASSIST
18-1201573 1410 ROBINS ST 2018-12-11 09:08:32.470 ATTEMPT TO CONTACT
18-1201572 500 SOUTH GERMAN LN 2018-12-11 09:07:10.770 SUPPLEMENT REPORT CALL
18-1201571 1525 NEW OXFORD RD 2018-12-11 09:01:15.980 CIVIL MATTER
18-1201570 2535 REMINGTON RD 2018-12-11 08:56:24.410 ALARM
18-1201564 18-14062 1305 DAVE WARD DR 2018-12-11 08:13:14.110 ACCIDENT - HIT AND RUN
18-1201561 2499 MUSEUM RD 2018-12-11 07:36:32.050 ACCIDENT - PROPERTY DAMAGE
18-1201559 3100 IRBY DR 2018-12-11 07:08:15.953 CHECK ON THE WELFARE
18-1201558 2127 COLLEGE AV 2018-12-11 06:01:50.360 STALLED VEHICLE
18-1201557 1900 HOGAN LN 2018-12-11 04:40:14.803 THEFT OF VEHICLE
18-1201556 18-14061 1001 MCNUTT RD 2018-12-11 03:15:30.577 DOMESTIC DISTURBANCE
18-1201555 1775 OLD MORRILTON HWY 2018-12-11 02:28:40.263 CHECKING VEHICLE
18-1201554 18-14059 2100 WASHINGTON AV 2018-12-11 02:21:54.550 ACCIDENT - PERSONAL INJURY
18-1201553 855 DUWAYNE LN 2018-12-11 01:47:42.647 ALARM
18-1201550 1951 BRUCE ST 2018-12-11 01:27:39.730 CHECKING VEHICLE
18-1201548 1405 S DONAGHEY AV 2018-12-11 01:06:31.523 LOUD NOISE-MUSIC
18-1201546 855 DUWAYNE LN 2018-12-11 00:04:41.397 ALARM
18-1201545 510 CHERUB DR 2018-12-11 00:01:51.200 LOUD NOISE-MUSIC
18-1201543 475 ROBINS ST 2018-12-10 23:16:36.743 CHECKING PERSON
18-1201542 475 ROBINS ST 2018-12-10 23:15:56.430 CHECKING PERSON
18-1201541 475 ROBINS ST 2018-12-10 23:15:25.380 CHECKING PERSON
18-1201540 3640 ASPEN CIR 2018-12-10 22:53:00.650 DOMESTIC DISTURBANCE
18-1201539 401 2ND ST 2018-12-10 22:34:10.247 HARASSMENT
18-1201538 710 S HARKRIDER DR 2018-12-10 22:29:42.050 CHECK ON THE WELFARE
18-1201536 18-14057 702 S MITCHELL ST 2018-12-10 22:20:22.350 BREAKING OR ENTERING
18-1201533 3900 DAVE WARD DR 2018-12-10 21:31:58.057 SUSPICIOUS PERSON
18-1201529 2930 FRIENDSHIP RD 2018-12-10 20:53:56.827 UNKNOWN TROUBLE
18-1201527 985 RUNWAY DR 2018-12-10 20:39:03.597 SUSPICIOUS VEHICLE
18-1201526 3900 DAVE WARD DR 2018-12-10 20:38:05.067 SHOPLIFTING
18-1201525 3099 SALEM RD 2018-12-10 20:36:51.370 STALLED VEHICLE
18-1201521 1105 SKYLINE DR 2018-12-10 20:17:52.780 ATTEMPT TO CONTACT
18-1201518 205 E OAK ST 2018-12-10 20:01:59.883 SHOTS FIRED
18-1201515 1804 COLLEGE AV 2018-12-10 19:39:29.260 ALARM
18-1201512 6195 DAVE WARD DR 2018-12-10 19:30:18.097 CIVIL STAND BY
18-1201511 2018-12-10 19:26:17.967 ATTEMPT TO CONTACT
18-1201510 18-14053 1005 E OAK ST 2018-12-10 19:16:41.293 ACCIDENT - PROPERTY DAMAGE
18-1201509 36 SHADY VALLEY DR 2018-12-10 19:11:21.853 LOUD NOISE-MUSIC
18-1201507 18-14052 534 ASH ST 2018-12-10 18:30:51.357 THEFT OF PROPERTY
18-1201503 10 PATTON CIR 2018-12-10 18:14:42.553 PROWLER
18-1201502 18-14051 1171 E OAK ST 2018-12-10 18:10:20.320 ACCIDENT - PROPERTY DAMAGE
18-1201501 21 BERNARD DR 2018-12-10 17:28:15.397 ATTEMPT TO CONTACT
18-1201500 1155 SKYLINE DR 2018-12-10 17:26:52.543 TRESPASSING
18-1201499 1715 JASMINE 2018-12-10 17:26:35.617 THEFT OF PROPERTY
18-1201497 1201 S DONAGHEY AV 2018-12-10 17:04:27.720 TRESPASSING
18-1201496 2018-12-10 16:58:44.437 ATTEMPT TO CONTACT
18-1201495 201 SKYLINE DR 2018-12-10 16:54:19.107 ACCIDENT - PROPERTY DAMAGE
18-1201494 500 SOUTH GERMAN LN 2018-12-10 16:54:03.083 ATTEMPT TO CONTACT
18-1201493 2410 T J DR 2018-12-10 16:45:11.567 ALARM
18-1201492 18-14049 1155 SKYLINE DR 2018-12-10 16:44:23.923 ACCIDENT - HIT AND RUN
18-1201491 18-14048 505 2ND AV 2018-12-10 16:41:32.490 BATTERY REPORT
18-1201490 1405 S DONAGHEY AV 2018-12-10 16:38:42.493 ATTEMPT TO CONTACT
18-1201489 18-14046 813 OAK ST 2018-12-10 16:31:40.617 ACCIDENT - PRIVATE PROPERTY
18-1201488 2255 STURGIS RD 2018-12-10 16:29:27.640 RECKLESS DRIVER
18-1201487 1845 ARDEN LN 2018-12-10 16:29:10.213 SUSPICIOUS PERSON
18-1201486 18-14050 1810 HOGAN LN 2018-12-10 16:28:08.890 TERRORISTIC THREATENING
18-1201485 18-14047 1228 DAVIS ST 2018-12-10 16:20:10.333 CRIMINAL MISCHIEF
18-1201483 18-14044 1499 MANOR ST 2018-12-10 16:16:15.237 SUPPLEMENT REPORT CALL
18-1201482 18-14043 501 HOGAN LN 2018-12-10 16:12:40.123 ACCIDENT - PROPERTY DAMAGE
18-1201481 711 FAIRVIEW ST 2018-12-10 16:11:24.947 TRESPASSING
18-1201480 1701 STURGIS RD 2018-12-10 16:07:37.760 VEHICLE TOW
18-1201479 505 2ND AV 2018-12-10 16:07:27.340 TRESPASSING
18-1201478 18-14042 501 HOGAN LN 2018-12-10 16:01:09.750 STALLED VEHICLE
18-1201477 18-14045 540 UNITED DR 2018-12-10 16:00:29.390 ATTEMPT TO CONTACT
18-1201472 2425 DAVE WARD DR 2018-12-10 15:45:59.550 DOMESTIC DISTURBANCE
18-1201471 18-14041 500 SOUTH GERMAN LN 2018-12-10 15:40:28.183 BREAKING OR ENTERING
18-1201470 855 SALEM RD 2018-12-10 15:39:48.637 SUSPICIOUS PERSON
18-1201468 855 SALEM RD 2018-12-10 15:38:38.577 THEFT OF PROPERTY
18-1201464 3900 DAVE WARD DR 2018-12-10 15:20:23.140 SUPPLEMENT REPORT CALL
18-1201463 2270 MEADOWLAKE RD 2018-12-10 15:06:07.727 CHECKING VEHICLE
18-1201462 2018-12-10 15:02:00.103 ATTEMPT TO CONTACT
18-1201461 18-14040 601 ELSINGER BLVD 2018-12-10 14:54:20.860 ACCIDENT - PRIVATE PROPERTY
18-1201459 1405 S DONAGHEY AV 2018-12-10 14:32:46.753 ATTEMPT TO CONTACT
18-1201458 201 DONAGHEY AV 2018-12-10 14:31:27.410 CHECKING VEHICLE
18-1201455 1300 GUERNSEY DR 2018-12-10 14:13:36.653 THEFT OF PROPERTY
18-1201454 1055 DAVE WARD DR 2018-12-10 14:11:15.377 NO CONTACT ORDER VIOLATION
18-1201451 1565 GARDENIA 2018-12-10 14:02:02.487 CHECK ON THE WELFARE
18-1201449 18-14037 1804 BERRY PLACE DR 2018-12-10 13:54:11.420 BREAKING OR ENTERING
18-1201446 18-14039 3501 COLLEGE AV 2018-12-10 13:36:07.073 CIVIL MATTER
18-1201445 18-14034 500 OAK ST 2018-12-10 13:19:36.080 ACCIDENT - PERSONAL INJURY
18-1201444 18-14033 1804 BERRY PLACE DR 2018-12-10 13:14:52.017 BURGLARY
18-1201443 2307 STOUT ST 2018-12-10 13:12:36.183 ATTEMPT TO CONTACT
18-1201441 1020 DAVIS ST 2018-12-10 13:09:17.653 PARKING VIOLATION
18-1201439 18-14035 714 HARKRIDER ST 2018-12-10 12:55:45.470 THEFT OF PROPERTY
18-1201438 18-14029 2550 PRINCE ST 2018-12-10 12:52:31.763 ACCIDENT - PRIVATE PROPERTY
18-1201437 18-14030 3333 DAVE WARD DR 2018-12-10 12:51:19.410 ATTEMPT TO CONTACT
18-1201436 18-14031 3900 DAVE WARD DR 2018-12-10 12:45:20.163 ACCIDENT - PRIVATE PROPERTY
18-1201435 18-14028 2101 COLLEGE AV 2018-12-10 12:38:55.540 ACCIDENT - PROPERTY DAMAGE
18-1201432 1120 SKYLINE DR 2018-12-10 12:31:26.593 VEHICLE TOW
18-1201431 1151 HUNTER ST 2018-12-10 12:29:39.933 CHECKING VEHICLE
18-1201430 867 FENDLEY DR 2018-12-10 12:05:14.753 CHECK ON THE WELFARE
18-1201429 12 WESTIN DR 2018-12-10 11:57:02.270 ALARM
18-1201428 707 ROBINS ST 2018-12-10 11:54:40.103 REPOSSESSION
18-1201422 2599 WASHINGTON AV 2018-12-10 11:20:24.297 TRAFFIC LIGHT PROBLEM
18-1201421 1825 E OAK ST 2018-12-10 11:18:29.430 DISTURBANCE
18-1201420 18-14027 1540 GOLD FALLS 2018-12-10 11:15:27.687 PARKING VIOLATION
18-1201419 1600 E OAK ST 2018-12-10 11:12:42.247 THEFT OF PROPERTY
18-1201418 18-14026 500 OAK ST 2018-12-10 11:03:44.177 ACCIDENT - PROPERTY DAMAGE
18-1201416 401 2ND ST 2018-12-10 10:45:20.877 CHECK ON THE WELFARE
18-1201415 1304 COLLIER DR 2018-12-10 10:45:03.763 911 HANGUP CALL
18-1201414 12 WESTIN DR 2018-12-10 10:41:46.013 ALARM
18-1201413 401 E OAK ST 2018-12-10 10:35:52.527 REPOSSESSION
18-1201412 1405 S DONAGHEY AV 2018-12-10 10:31:32.623 ATTEMPT TO CONTACT
18-1201409 22 HAWTHORNE DR 2018-12-10 10:20:22.343 REPOSSESSION
18-1201408 2425 SANDERS ST 2018-12-10 10:16:25.013 ATTEMPT TO CONTACT
18-1201406 18-14025 821 HOGAN LN 2018-12-10 10:11:07.610 ACCIDENT - PRIVATE PROPERTY
18-1201405 225 2018-12-10 10:10:34.600 AGENCY ASSIST
18-1201404 2018-12-10 10:09:17.753 ATTEMPT TO CONTACT
18-1201402 407 HEREFORD ST 2018-12-10 10:02:12.863 ATTEMPT TO CONTACT
18-1201401 1715 TUSCANY DR 2018-12-10 09:58:46.520 SUPPLEMENT REPORT CALL
18-1201399 18-14024 1090 SKYLINE DR 2018-12-10 09:50:20.407 ACCIDENT - HIT AND RUN
18-1201398 2765 BLANEY HILL RD 2018-12-10 09:49:50.173 SUPPLEMENT REPORT CALL
18-1201396 711 FAIRVIEW ST 2018-12-10 09:27:53.710 LOUD NOISE-MUSIC
18-1201395 898 LOCUST AV 2018-12-10 09:19:41.020 REPOSSESSION
18-1201394 18-14023 710 S DAVIS ST 2018-12-10 09:18:21.583 THEFT OF PROPERTY
18-1201393 3430 IRBY DR 2018-12-10 09:10:30.800 AGENCY ASSIST
18-1201392 2300 PRINCE ST 2018-12-10 09:00:04.070 ATTEMPT TO CONTACT
18-1201391 900 SOUTH GERMAN LN 2018-12-10 08:59:45.977 TRAFFIC PROBLEM-CONTROL
18-1201388 912 DONAGHEY AV 2018-12-10 08:46:29.750 DOMESTIC DISTURBANCE
18-1201387 2503 W MARTIN ST 2018-12-10 08:44:31.593 ATTEMPT TO CONTACT
18-1201386 99 HILTON DR 2018-12-10 08:33:23.620 ACCIDENT - PROPERTY DAMAGE
18-1201383 955 E OAK ST 2018-12-10 08:25:23.880 ALARM
18-1201382 1310 BRUCE ST 2018-12-10 08:22:28.080 THEFT OF PROPERTY
18-1201381 1620 MIDDLE RD 2018-12-10 08:21:12.403 ALARM
18-1201380 1371 STANLEY RUSS RD 2018-12-10 08:14:09.853 ALARM
18-1201378 2475 WASHINGTON AV 2018-12-10 08:04:59.960 ALARM - BANK
18-1201377 18-14021 1200 DAVE WARD DR 2018-12-10 08:01:01.260 ACCIDENT - PROPERTY DAMAGE
18-1201376 18-14019 202 S DONAGHEY AV 2018-12-10 07:58:03.090 ACCIDENT - PROPERTY DAMAGE
18-1201375 18-14020 1321 BELLEMEADE DR 2018-12-10 07:49:33.753 ACCIDENT - PROPERTY DAMAGE
18-1201374 530 S DONAGHEY AV 2018-12-10 07:36:09.777 PARKING VIOLATION
18-1201373 530 S DONAGHEY AV 2018-12-10 07:09:01.060 ALARM
18-1201372 1820 DUNCAN ST 2018-12-10 06:54:01.873 ATTEMPT TO CONTACT
18-1201371 1440 GOLD FALLS 2018-12-10 06:51:43.483 TRAFFIC PROBLEM-CONTROL
18-1201369 815 E OAK ST 2018-12-10 06:30:22.557 CHECKING BUILDING
18-1201368 18-14018 1105 PRAIRIE ST 2018-12-10 06:26:02.890 AGENCY ASSIST
18-1201367 2050 DAVE WARD DR 2018-12-10 06:08:04.597 RECKLESS DRIVER
18-1201364 2499 MUSEUM RD 2018-12-10 04:16:48.450 ACCIDENT - HIT AND RUN
18-1201363 225 TILK RD 2018-12-10 04:10:55.790 ALARM
18-1201362 2000 KEATHLEY DR 2018-12-10 04:00:44.540 LOG VEHICLE
18-1201361 505 2ND AV 2018-12-10 04:00:22.400 BATTERY REPORT
18-1201359 505 2ND AV 2018-12-10 02:44:58.160 TRESPASSING
18-1201358 2000 SILVER SPRINGS CIR 2018-12-10 02:02:32.127 PURSUIT DRILL
18-1201356 200 S HARKRIDER DR 2018-12-10 01:43:39.203 ALARM
18-1201355 799 CENTRAL LANDING BLVD 2018-12-10 01:41:34.650 CHECKING PERSON
18-1201352 18-14017 2275 MOIX BLVD 2018-12-10 01:05:44.850 CHECK ON THE WELFARE
18-1201351 1 CADRON SETTLEMENT PARK RD 2018-12-10 01:03:20.720 ATTEMPT TO CONTACT
18-1201350 600 5TH AV 2018-12-10 00:32:23.123 CHECKING VEHICLE
18-1201349 1100 MONTANA DR 2018-12-10 00:31:30.747 CHECKING VEHICLE
18-1201345 500 ELSINGER BLVD 2018-12-09 23:40:29.130 CHECKING PERSON
18-1201344 1201 EXCHANGE AV 2018-12-09 23:25:13.390 CHECKING VEHICLE
18-1201343 1131 ASH ST 2018-12-09 23:22:59.307 DISTURBANCE
18-1201341 401 2ND ST 2018-12-09 22:36:21.453 NO CONTACT ORDER VIOLATION
18-1201340 1440 DAVE WARD DR 2018-12-09 22:32:24.813 STALLED VEHICLE
18-1201338 1 CADRON SETTLEMENT PARK RD 2018-12-09 22:08:11.180 CHECKING BUILDING
18-1201337 602 1ST AV 2018-12-09 22:05:10.400 SUSPICIOUS VEHICLE
18-1201334 137 LOWER RIDGE RD 2018-12-09 21:29:49.090 DOMESTIC DISTURBANCE
18-1201333 18-14016 1620 JASMINE 2018-12-09 21:27:45.317 UNAUTHORIZED USE OF MOTOR VEHICLE
18-1201330 1301 MUSEUM RD 2018-12-09 21:22:48.193 CHECKING VEHICLE
18-1201328 300 S DONAGHEY AV 2018-12-09 21:17:03.580 CHECK ON THE WELFARE
18-1201327 27 WOODLAWN DR 2018-12-09 21:03:39.963 BATTERY REPORT
18-1201325 3501 COLLEGE AV 2018-12-09 20:36:40.747 ATTEMPT TO CONTACT
18-1201324 2307 STOUT ST 2018-12-09 20:36:39.327 CIVIL STAND BY
18-1201323 2602 BRUCE ST 2018-12-09 20:31:28.460 CHECKING PERSON
18-1201322 1105 PRAIRIE ST 2018-12-09 20:19:16.120 CHECKING PERSON
18-1201321 4870 ABBEY GAIL DR 2018-12-09 20:11:27.797 911 HANGUP CALL
18-1201320 2015 RICH SMITH LN 2018-12-09 20:05:41.423 LOUD NOISE-MUSIC
18-1201319 1310 SALEM RD 2018-12-09 20:03:30.443 ATTEMPT TO CONTACT
18-1201315 18-14015 855 SALEM RD 2018-12-09 19:12:08.667 FRAUD
18-1201314 3050 PEBBLE BEACH DR 2018-12-09 19:10:25.330 CHECK ON THE WELFARE
18-1201313 1023 MAIN ST 2018-12-09 19:06:44.057 DOMESTIC DISTURBANCE
18-1201312 900 LOCUST AV 2018-12-09 19:05:59.767 INTOXICATED DRIVER
18-1201311 34 THOUSAND OAKS CIR 2018-12-09 19:03:30.207 SHOTS FIRED
18-1201310 1115 E OAK ST 2018-12-09 18:57:27.110 CHECKING BUILDING
18-1201309 800 GRANDVIEW HEIGHTS DR 2018-12-09 18:37:08.587 SUSPICIOUS ACTIVITY
18-1201308 18-14014 2501 DAVE WARD DR 2018-12-09 18:32:59.060 SUSPICIOUS ACTIVITY
18-1201307 1105 PRAIRIE ST 2018-12-09 18:22:46.263 CIVIL MATTER
18-1201306 911 S HARKRIDER DR 2018-12-09 18:22:03.223 STALLED VEHICLE
18-1201305 3299 STERMER RD 2018-12-09 18:18:50.357 PROPERTY DAMAGE
18-1201304 975 KNIGHTS DR 2018-12-09 17:57:23.550 SHOTS FIRED
18-1201303 18-14012 3900 DAVE WARD DR 2018-12-09 17:56:39.247 SHOPLIFTING
18-1201301 422 MONROE ST 2018-12-09 17:52:32.743 TRESPASSING
18-1201300 18-14013 101 OAK ST 2018-12-09 17:48:23.717 THEFT OF PROPERTY
18-1201298 1099 SIEBENMORGEN RD 2018-12-09 17:30:43.020 STALLED VEHICLE
18-1201297 18-14011 905 SKYLINE DR 2018-12-09 17:10:26.743 ACCIDENT - PRIVATE PROPERTY
18-1201295 18-14010 401 2ND ST 2018-12-09 16:58:08.100 DOMESTIC DISTURBANCE
18-1201294 1128 HARKRIDER ST 2018-12-09 16:20:16.043 ALARM
18-1201293 1115 PARKWAY ST 2018-12-09 16:04:35.017 SUSPICIOUS ACTIVITY
18-1201292 2101 COLLEGE AV 2018-12-09 15:49:27.250 CIVIL MATTER
18-1201291 475 ROBINS ST 2018-12-09 15:35:28.360 DOMESTIC DISTURBANCE
18-1201290 1903 HOGAN LN 2018-12-09 15:23:09.393 CHECK ON THE WELFARE
18-1201288 1475 JOYNER DR 2018-12-09 15:07:05.313 CIVIL MATTER
18-1201287 18-14009 3900 DAVE WARD DR 2018-12-09 14:50:19.140 SHOPLIFTING
18-1201286 601 ELSINGER BLVD 2018-12-09 14:39:25.987 SUSPICIOUS PERSON
18-1201285 401 AMITY RD 2018-12-09 14:38:39.280 SUSPICIOUS PERSON
18-1201284 620 CHESTNUT ST 2018-12-09 14:35:55.603 ATTEMPT TO CONTACT
18-1201283 18-14007 801 S SALEM RD 2018-12-09 14:30:58.167 ACCIDENT - PROPERTY DAMAGE
18-1201282 18-14006 2300 PRINCE ST 2018-12-09 14:27:06.767 ATTEMPT TO CONTACT
18-1201280 1161 OLD MORRILTON HWY 2018-12-09 14:19:00.100 ACCIDENT - PRIVATE PROPERTY
18-1201277 18-14004 2599 WASHINGTON AV 2018-12-09 14:05:49.743 ACCIDENT - PROPERTY DAMAGE
18-1201276 18-14005 1510 HATHAWAY DR 2018-12-09 13:53:56.247 THEFT OF PROPERTY
18-1201272 18-14003 475 ROBINS ST 2018-12-09 12:57:35.600 ACCIDENT - PRIVATE PROPERTY
18-1201271 18-14002 801 HOGAN LN 2018-12-09 12:49:14.970 ACCIDENT - PROPERTY DAMAGE
18-1201270 18-14001 500 SOUTH GERMAN LN 2018-12-09 12:47:31.837 MISDEMEANOR WARRANT SERVICE
18-1201268 502 E 6TH ST 2018-12-09 12:40:15.077 ATTEMPT TO CONTACT
18-1201267 620 CHESTNUT ST 2018-12-09 12:27:42.953 FOUND PROPERTY
18-1201266 18-14000 899 ELSINGER BLVD 2018-12-09 12:13:12.457 ACCIDENT - PROPERTY DAMAGE
18-1201265 1050 JOHN MASON DR 2018-12-09 11:50:24.153 ALARM
18-1201263 1150 MUSEUM RD 2018-12-09 11:24:45.153 REPOSSESSION
18-1201262 18-13999 1161 OLD MORRILTON HWY 2018-12-09 11:17:25.570 ACCIDENT - PRIVATE PROPERTY
18-1201260 1400 OLD MORRILTON HWY 2018-12-09 11:04:26.770 ALARM
18-1201258 650 SKYLINE DR 2018-12-09 10:58:40.490 CHECKING PERSON
18-1201257 1155 SKYLINE DR 2018-12-09 10:43:30.620 SUSPICIOUS PERSON
18-1201253 711 FAIRVIEW ST 2018-12-09 09:47:03.140 DISTURBANCE
18-1201251 420 E OAK ST 2018-12-09 09:06:10.147 CHECKING PERSON
18-1201249 1161 OLD MORRILTON HWY 2018-12-09 09:01:29.543 ACCIDENT - PRIVATE PROPERTY
18-1201244 18-13997 1155 SKYLINE DR 2018-12-09 08:17:46.323 SHOPLIFTING
18-1201241 18-13996 2503 W MARTIN ST 2018-12-09 07:16:26.913 AGENCY ASSIST
18-1201239 125 I40EB 2018-12-09 07:07:08.813 CHECKING VEHICLE
18-1201238 1155 DAVE WARD DR 2018-12-09 06:47:57.230 ALARM
18-1201235 2135 HARKRIDER ST 2018-12-09 02:42:34.690 CHECKING BUILDING
18-1201234 2018-12-09 02:41:48.483 WEATHER RELATED CALLS-PROBLEMS
18-1201232 18-13995 1815 OLD MORRILTON HWY 2018-12-09 02:27:43.943 FORGERY
18-1201231 1500 E OAK ST 2018-12-09 02:09:15.060 LOUD NOISE-MUSIC
18-1201230 1060 HOGAN LN 2018-12-09 02:02:48.750 CHECKING VEHICLE
18-1201227 18-13994 2505 E OAK ST 2018-12-09 01:49:42.430 STALLED VEHICLE
18-1201225 1161 OLD MORRILTON HWY 2018-12-09 01:28:50.930 CHECKING PERSON
18-1201223 500 SOUTH GERMAN LN 2018-12-09 01:24:30.730 AGENCY ASSIST
18-1201220 1360 TORREYSON ST 2018-12-09 00:23:18.560 STALLED VEHICLE
18-1201219 1 CADRON SETTLEMENT PARK RD 2018-12-09 00:22:36.190 CHECKING BUILDING
18-1201216 1611 E OAK ST 2018-12-08 23:56:35.600 LOUD NOISE-MUSIC
18-1201215 1655 FREYALDENHOVEN LN 2018-12-08 23:52:47.820 CHECKING VEHICLE
18-1201212 18-13993 2610 FLORENCE MATTISON DR 2018-12-08 23:14:16.120 BURGLARY
18-1201210 2255 STURGIS RD 2018-12-08 22:52:17.053 911 HANGUP CALL
18-1201208 2203 WEST ST 2018-12-08 22:31:21.307 DISTURBANCE
18-1201207 1611 E OAK ST 2018-12-08 22:30:36.783 LOUD NOISE-MUSIC
18-1201206 1611 E OAK ST 2018-12-08 22:05:16.783 LOUD NOISE-MUSIC
18-1201203 402 HARKRIDER ST 2018-12-08 21:52:13.150 RECKLESS DRIVER
18-1201202 18-13991 3900 DAVE WARD DR 2018-12-08 21:46:54.590 SHOPLIFTING
18-1201201 18-13990 559 HARKRIDER ST 2018-12-08 21:44:32.860 HARASSMENT
18-1201199 125 I40EB 2018-12-08 21:05:03.587 STALLED VEHICLE
18-1201198 2315 DAHLIA 2018-12-08 20:51:32.857 TRESPASSING
18-1201197 2018-12-08 20:47:07.963 MISSING PERSON
18-1201194 18-13989 1101 OLD MORRILTON HWY 2018-12-08 20:18:22.460 ACCIDENT - PROPERTY DAMAGE
18-1201193 18-13988 1715 TUSCANY DR 2018-12-08 19:50:07.707 ACCIDENT - HIT AND RUN
18-1201191 18-13987 1503 EAST GERMAN LN 2018-12-08 19:33:33.343 CHECK ON THE WELFARE
18-1201188 200 S HARKRIDER DR 2018-12-08 19:00:51.233 CHECKING PERSON
18-1201186 MEADOWLAKE RD 2018-12-08 18:48:56.723 CIVIL MATTER
18-1201185 18-13986 3034 DONNELL RIDGE RD 2018-12-08 18:48:04.790 SUSPICIOUS PERSON
18-1201184 4550 OLD MORRILTON HWY 2018-12-08 18:35:25.647 ALARM
18-1201183 610 INGRAM ST 2018-12-08 18:17:08.307 CHECK ON THE WELFARE
18-1201182 1226 HARKRIDER ST 2018-12-08 18:16:45.717 AGENCY ASSIST
18-1201181 1105 PRAIRIE ST 2018-12-08 17:39:38.633 CITIZEN ASSIST
18-1201179 1105 PRAIRIE ST 2018-12-08 16:30:51.467 ATTEMPT TO CONTACT
18-1201178 18-13985 606 CLARA DR 2018-12-08 16:12:42.237 BREAKING OR ENTERING
18-1201177 2270 MEADOWLAKE RD 2018-12-08 16:12:09.493 911 HANGUP CALL
18-1201174 900 LOCUST AV 2018-12-08 15:41:57.657 CITIZEN ASSIST
18-1201172 2270 MEADOWLAKE RD 2018-12-08 15:32:28.887 911 HANGUP CALL
18-1201171 18-13984 2100 DAVE WARD DR 2018-12-08 15:14:15.070 ACCIDENT - PROPERTY DAMAGE
18-1201170 1907 CREEKWOOD DR 2018-12-08 15:02:35.023 FRAUD
18-1201169 601 ELSINGER BLVD 2018-12-08 14:57:18.320 SUSPICIOUS ACTIVITY
18-1201168 300 S DONAGHEY AV 2018-12-08 14:52:24.367 ATTEMPT TO CONTACT
18-1201167 2700 RAZORBACK DR 2018-12-08 14:47:58.160 PARKING VIOLATION
18-1201165 2140 CHASE DR 2018-12-08 14:19:41.550 LOUD NOISE-MUSIC
18-1201164 1795 BILL LUCY DR 2018-12-08 14:10:06.133 CIVIL STAND BY
18-1201162 1020 FRONT ST 2018-12-08 13:47:57.410 SUPPLEMENT REPORT CALL
18-1201161 18-13983 2640 PRINCE ST 2018-12-08 13:45:28.070 ACCIDENT - PROPERTY DAMAGE
18-1201160 18-13982 1615 E OAK ST 2018-12-08 13:28:11.430 BURGLARY
18-1201158 18-13981 1260 S AMITY RD 2018-12-08 12:40:34.640 ACCIDENT - HIT AND RUN
18-1201157 18-13980 504 E OAK ST 2018-12-08 12:34:54.193 ACCIDENT - PROPERTY DAMAGE
18-1201155 18-13979 1912 HOGAN LN 2018-12-08 12:11:36.750 CRIMINAL MISCHIEF
18-1201153 2155 RAINBOW RD 2018-12-08 12:03:31.863 SUSPICIOUS PERSON
18-1201152 20 KINLEY DR 2018-12-08 12:02:16.567 CRIMINAL MISCHIEF
18-1201151 2505 E OAK ST 2018-12-08 11:44:21.970 ATTEMPT TO CONTACT
18-1201149 1320 BLUSTERY WAY 2018-12-08 10:52:20.007 ALARM
18-1201148 1795 BILL LUCY DR 2018-12-08 10:42:18.180 ATTEMPT TO CONTACT
18-1201146 705 4TH ST 2018-12-08 10:16:54.340 911 HANGUP CALL
18-1201145 18-13977 1600 HIGHPOINT DR 2018-12-08 09:59:59.870 DEATH CALL
18-1201144 501 ELSINGER BLVD 2018-12-08 09:59:25.347 SUSPICIOUS VEHICLE
18-1201140 18-13976 2795 WINEBERRY RD 2018-12-08 09:23:16.840 PROPERTY DAMAGE
18-1201139 215 SKYLINE DR 2018-12-08 08:47:56.933 CHECK ON THE WELFARE
18-1201136 18-13974 1155 SKYLINE DR 2018-12-08 08:05:08.313 SHOPLIFTING
18-1201135 18-13973 2765 BLANEY HILL RD 2018-12-08 07:21:03.360 THEFT OF VEHICLE
18-1201134 3600 JEANNA DR 2018-12-08 05:05:50.080 UNKNOWN TROUBLE
18-1201133 2007 KEATHLEY DR 2018-12-08 05:00:13.330 HARASSMENT
18-1201131 2302 COLLEGE AV 2018-12-08 04:14:44.310 SUPPLEMENT REPORT CALL
18-1201130 250 DONAGHEY AV 2018-12-08 04:07:58.920 AGENCY ASSIST
18-1201128 1105 PRAIRIE ST 2018-12-08 03:14:32.630 EVIDENCE LOG
18-1201127 235 FARRIS RD 2018-12-08 02:53:04.330 ATTEMPT TO CONTACT
18-1201126 1860 S SALEM RD 2018-12-08 02:29:07.553 DOMESTIC DISTURBANCE
18-1201125 18-13972 235 FARRIS RD 2018-12-08 02:22:35.110 THEFT OF PROPERTY
18-1201124 1325 OLD MORRILTON HWY 2018-12-08 02:22:09.463 CHECKING BUILDING
18-1201121 380 HARKRIDER ST 2018-12-08 01:35:33.313 ATTEMPT TO CONTACT
18-1201120 18-13970 610 S MITCHELL ST 2018-12-08 01:04:26.800 DISTURBANCE
18-1201118 1 CADRON SETTLEMENT PARK RD 2018-12-08 00:57:41.083 CHECKING BUILDING
18-1201116 18-13971 1052 HARRISON ST 2018-12-08 00:53:20.027 CHECKING VEHICLE
18-1201115 2010 RICH SMITH LN 2018-12-08 00:33:20.503 DISTURBANCE
18-1201114 18-13969 1020 FRONT ST 2018-12-08 00:20:26.637 BREAKING OR ENTERING
18-1201113 2019 JOHNSTON AV 2018-12-08 00:12:40.203 LOUD NOISE-MUSIC
18-1201112 18-13968 401 2ND ST 2018-12-08 00:12:21.123 NO CONTACT ORDER VIOLATION
18-1201111 30 BRIER SPRINGS DR 2018-12-08 00:10:18.460 TRESPASSING
18-1201110 310 S HARKRIDER DR 2018-12-08 00:08:18.977 CHECKING BUILDING
18-1201109 2025 LEE AV 2018-12-08 00:01:10.887 LOUD NOISE-MUSIC
18-1201108 720 S HARKRIDER DR 2018-12-07 23:57:46.837 CHECKING BUILDING
18-1201107 475 ROBINS ST 2018-12-07 23:47:29.690 CHECKING PERSON
18-1201106 2102 BRUCE ST 2018-12-07 23:39:59.307 INTOXICATED PERSON
18-1201105 18-13967 401 2ND ST 2018-12-07 23:11:41.840 NO CONTACT ORDER VIOLATION
18-1201104 501 ELSINGER BLVD 2018-12-07 23:10:36.537 CHECK ON THE WELFARE
18-1201103 2820 COLLEGE AV 2018-12-07 23:05:10.910 LOUD NOISE-MUSIC
18-1201102 3430 IRBY DR 2018-12-07 22:41:50.380 FIGHT
18-1201101 500 ELSINGER BLVD 2018-12-07 22:40:57.260 ALARM
18-1201100 18-13966 3900 DAVE WARD DR 2018-12-07 22:35:15.160 THEFT OF PROPERTY
18-1201099 18-13965 1931 MARTIN ST 2018-12-07 22:31:34.650 DISTURBANCE
18-1201098 12 RIDGEWOOD DR 2018-12-07 22:29:48.367 ALARM
18-1201097 295 S ASH ST 2018-12-07 22:08:00.093 DOMESTIC DISTURBANCE
18-1201096 340 SHAW ST 2018-12-07 22:01:15.110 LOUD NOISE-MUSIC
18-1201093 530 S DONAGHEY AV 2018-12-07 21:38:36.900 CIVIL MATTER
18-1201090 1100 CALLOWAY DR 2018-12-07 21:07:19.153 SUSPICIOUS PERSON
18-1201089 47 DENDRON ST 2018-12-07 21:05:45.647 SUSPICIOUS VEHICLE
18-1201088 160 LOWER RIDGE RD 2018-12-07 20:44:50.790 STALLED VEHICLE
18-1201087 466 HARKRIDER ST 2018-12-07 20:31:59.807 CHECK ON THE WELFARE
18-1201084 101 OAK ST 2018-12-07 20:25:14.510 CHECKING PERSON
18-1201083 801 ELSINGER BLVD 2018-12-07 20:16:38.640 SUPPLEMENT REPORT CALL
18-1201082 150 S HOGAN LN 2018-12-07 20:14:27.440 CHECKING VEHICLE
18-1201081 1795 BILL LUCY DR 2018-12-07 20:07:24.673 CIVIL MATTER
18-1201080 18-13963 475 ROBINS ST 2018-12-07 20:06:36.280 MISSING PERSON
18-1201077 100 BROOKSIDE DR 2018-12-07 19:39:15.707 REPOSSESSION
18-1201076 100 BRUCE ST 2018-12-07 19:37:16.490 STALLED VEHICLE
18-1201075 2000 SIMMS ST 2018-12-07 19:32:37.103 FIRE DEPT ASSIST
18-1201072 466 HARKRIDER DR 2018-12-07 19:15:17.843 CHECK ON THE WELFARE
18-1201071 1040 S AMITY RD 2018-12-07 19:10:17.693 ALARM
18-1201070 1129 GUM ST 2018-12-07 18:58:41.843 ATTEMPT TO CONTACT
18-1201068 8 ROSEWOOD DR 2018-12-07 18:40:16.700 CIVIL STAND BY
18-1201067 18-13962 2015 RICH SMITH LN 2018-12-07 18:25:08.263 CRIMINAL MISCHIEF
18-1201065 1135 SKYLINE DR 2018-12-07 18:17:34.640 CHECKING PERSON
18-1201064 2200 WASHINGTON AV 2018-12-07 17:54:44.653 ATTEMPT TO CONTACT
18-1201063 18-13960 1200 E DAVE WARD DR 2018-12-07 17:50:19.023 ACCIDENT - PROPERTY DAMAGE
18-1201062 2300 PRINCE ST 2018-12-07 17:37:20.907 MISSING PERSON
18-1201060 18-13959 1200 E DAVE WARD DR 2018-12-07 17:24:48.237 ACCIDENT - PROPERTY DAMAGE
18-1201059 201 SKYLINE DR 2018-12-07 17:17:34.003 STALLED VEHICLE
18-1201058 18-13958 500 SOUTH GERMAN LN 2018-12-07 17:10:27.913 FELONY WARRANT SERVICE
18-1201057 314 ELIZABETH ST 2018-12-07 17:06:09.837 ATTEMPT TO CONTACT
18-1201056 201 SKYLINE DR 2018-12-07 17:01:58.750 ATTEMPT TO CONTACT
18-1201055 955 SOUTH GERMAN LN 2018-12-07 17:01:41.170 DOMESTIC DISTURBANCE
18-1201054 1795 BILL LUCY DR 2018-12-07 16:57:01.813 CIVIL STAND BY
18-1201052 5370 TRINITY CROSSING DR 2018-12-07 16:48:01.263 ALARM - HOLD UP or PANIC
18-1201051 2200 MEADOWLAKE RD 2018-12-07 16:47:50.593 HARASSMENT
18-1201050 207 WILLOW ST 2018-12-07 16:45:54.353 CHECK ON THE WELFARE
18-1201049 1140 HARKRIDER ST 2018-12-07 16:43:18.087 CHECK ON THE WELFARE
18-1201048 2400 MARKET PLAZA DR 2018-12-07 16:35:22.340 SERVING SUBPOENA
18-1201046 1529 DAVIS ST 2018-12-07 16:29:57.510 SERVING SUBPOENA
18-1201045 18-13957 905 SKYLINE DR 2018-12-07 16:29:32.457 ACCIDENT - PROPERTY DAMAGE
18-1201044 18-13956 530 S DONAGHEY AV 2018-12-07 16:01:42.147 DISTURBANCE
18-1201043 2510 PRINCE ST 2018-12-07 15:49:59.650 ATTEMPT TO CONTACT
18-1201042 101 OAK ST 2018-12-07 15:46:13.743 REPOSSESSION
18-1201041 1900 TYLER ST 2018-12-07 15:43:04.153 SUSPICIOUS PERSON
18-1201040 1015 RAYMOND DR 2018-12-07 15:39:12.863 ATTEMPT TO CONTACT
18-1201039 611 COURT ST 2018-12-07 15:36:08.903 FRAUD
18-1201038 14 MORNINGSIDE DR 2018-12-07 15:34:59.967 SUSPICIOUS VEHICLE
18-1201037 475 ROBINS ST 2018-12-07 15:27:00.617 SUSPICIOUS PERSON
18-1201036 18-13954 420 2ND AV 2018-12-07 15:26:05.950 LOST PROPERTY
18-1201034 313 HELEN ST 2018-12-07 15:21:46.177 TRESPASSING
18-1201032 300 S DONAGHEY AV 2018-12-07 15:09:44.600 ATTEMPT TO CONTACT
18-1201031 5210 STOCKTON RD 2018-12-07 15:00:39.900 ATTEMPT TO CONTACT
18-1201030 1618 DAVIS ST 2018-12-07 14:56:47.160 KIDNAPPING
18-1201029 3100 IRBY DR 2018-12-07 14:54:04.883 SUPPLEMENT REPORT CALL
18-1201028 1122 GUM ST 2018-12-07 14:43:10.403 SUPPLEMENT REPORT CALL
18-1201027 18-13953 1600 E SIEBENMORGEN RD 2018-12-07 14:37:32.003 DISORDERLY CONDUCT
18-1201025 702 S MITCHELL ST 2018-12-07 14:33:01.540 SUPPLEMENT REPORT CALL
18-1201023 3401 SALEM RD 2018-12-07 14:22:10.883 SUPPLEMENT REPORT CALL
18-1201020 402 HARKRIDER ST 2018-12-07 13:42:51.697 STALLED VEHICLE
18-1201019 314 ELIZABETH ST 2018-12-07 13:42:29.530 ATTEMPT TO CONTACT
18-1201018 18-13950 501 ELSINGER BLVD 2018-12-07 13:30:17.127 SHOPLIFTING
18-1201016 4550 OLD MORRILTON HWY 2018-12-07 13:19:06.203 FOUND PROPERTY
18-1201015 18-13952 2840 DAVE WARD DR 2018-12-07 13:14:32.747 THEFT OF PROPERTY
18-1201012 502 6TH ST 2018-12-07 12:54:44.563 CIVIL MATTER
18-1201011 24 FRED LN 2018-12-07 12:53:57.797 ATTEMPT TO CONTACT
18-1201008 18-13945 835 S DONAGHEY AV 2018-12-07 12:22:33.950 THEFT OF PROPERTY
18-1201007 1955 KEATHLEY DR 2018-12-07 12:20:14.233 INTOXICATED DRIVER
18-1201005 2756 EASTPORT CIR 2018-12-07 12:10:03.230 OPEN DOOR/WINDOW/FENCE
18-1201004 18-13944 1122 GUM ST 2018-12-07 12:05:09.447 BREAKING OR ENTERING
18-1201000 18-13942 504 E OAK ST 2018-12-07 11:36:17.190 ACCIDENT - HIT AND RUN
18-1200999 3401 FRIENDSHIP RD 2018-12-07 11:27:13.643 SUPPLEMENT REPORT CALL
18-1200998 18-13943 1501 TRAILS EDGE DR 2018-12-07 11:16:01.710 THEFT OF PROPERTY
18-1200997 199 SHAMROCK DR 2018-12-07 11:11:46.393 FOUND PROPERTY
18-1200996 5335 LOST CANYON DR 2018-12-07 11:03:44.437 SUPPLEMENT REPORT CALL
18-1200995 18-13940 955 SOUTH GERMAN LN 2018-12-07 11:02:24.627 THEFT OF PROPERTY
18-1200994 314 ELIZABETH ST 2018-12-07 11:01:18.217 ATTEMPT TO CONTACT
18-1200993 1525 CLIFTON ST 2018-12-07 10:58:18.487 AGENCY ASSIST
18-1200992 601 SOUTH GERMAN LN 2018-12-07 10:56:44.477 PROPERTY DAMAGE
18-1200991 18-13939 1205 MITCHELL ST 2018-12-07 10:49:50.163 BREAKING OR ENTERING
18-1200990 810 CRAIN DR 2018-12-07 10:49:27.933 STALLED VEHICLE
18-1200989 1405 S DONAGHEY AV 2018-12-07 10:47:33.210 ATTEMPT TO CONTACT
18-1200986 18-13938 1001 HARKRIDER ST 2018-12-07 10:41:23.997 ACCIDENT - PROPERTY DAMAGE
18-1200983 301 DONAGHEY AV 2018-12-07 10:32:50.793 RECKLESS DRIVER
18-1200982 1775 ARDEN LN 2018-12-07 10:21:07.127 CHECK ON THE WELFARE
18-1200981 710 S HARKRIDER DR 2018-12-07 10:13:09.587 RECOVERED VEHICLE
18-1200980 18-13937 4550 OLD MORRILTON HWY 2018-12-07 09:59:07.110 ACCIDENT - PROPERTY DAMAGE
18-1200979 5210 STOCKTON RD 2018-12-07 09:46:26.047 AGENCY ASSIST
18-1200973 155 FARRIS RD 2018-12-07 09:04:38.040 VEHICLE TOW
18-1200972 18-13934 702 S MITCHELL ST 2018-12-07 09:00:08.783 CIVIL MATTER
18-1200971 18-13935 246 OAK ST 2018-12-07 08:53:19.360 TERRORISTIC THREATENING
18-1200970 500 REEDY RD 2018-12-07 08:43:27.540 ACCIDENT - PROPERTY DAMAGE
18-1200969 1105 PRAIRIE ST 2018-12-07 08:40:44.497 SERVING SUBPOENA
18-1200967 438 HELEN ST 2018-12-07 08:27:06.733 SERVING SUBPOENA
18-1200966 5190 STOCKTON RD 2018-12-07 08:21:59.267 SERVING SUBPOENA
18-1200965 804 NORTH CREEK DR 2018-12-07 08:18:34.700 CRIMINAL MISCHIEF
18-1200964 18-13931 905 E OAK ST 2018-12-07 08:16:49.380 ACCIDENT - PRIVATE PROPERTY
18-1200963 2106 MILLWOOD DR 2018-12-07 08:16:11.050 HARASSMENT
18-1200962 150 E OAK ST 2018-12-07 08:10:01.700 SUPPLEMENT REPORT CALL
18-1200961 1225 CUMULUS DR 2018-12-07 08:10:00.827 SERVING SUBPOENA
18-1200960 2270 MEADOWLAKE RD 2018-12-07 07:59:36.890 CIVIL STAND BY
18-1200957 2300 PRINCE ST 2018-12-07 07:46:26.067 ATTEMPT TO CONTACT
18-1200956 1950 STERLING DR 2018-12-07 07:35:57.700 SUPPLEMENT REPORT CALL
18-1200955 955 SOUTH GERMAN LN 2018-12-07 07:24:47.887 ATTEMPT TO CONTACT
18-1200954 955 E OAK ST 2018-12-07 07:19:21.920 ALARM
18-1200951 2565 GRUMMER LN 2018-12-07 06:37:14.920 ALARM
18-1200950 3200 DAVE WARD DR 2018-12-07 06:29:16.410 DOMESTIC DISTURBANCE
18-1200948 900 E SIEBENMORGEN RD 2018-12-07 04:41:16.077 ROAD RAGE
18-1200947 3900 DAVE WARD DR 2018-12-07 04:16:52.817 SHOPLIFTING
18-1200946 401 2ND ST 2018-12-07 02:48:51.710 CHECK ON THE WELFARE
18-1200945 120 S HARKRIDER DR 2018-12-07 02:32:19.390 CHECKING PERSON
18-1200943 13 BRADLEY CIR 2018-12-07 01:30:55.783 DOMESTIC DISTURBANCE
18-1200941 605 SOUTH GERMAN LN 2018-12-07 01:05:54.990 ACCIDENT - PRIVATE PROPERTY
18-1200940 635 S MITCHELL ST 2018-12-07 00:29:24.597 LOUD NOISE-MUSIC
18-1200938 2895 DAVE WARD DR 2018-12-07 00:12:44.337 ALARM
18-1200936 2018-12-07 00:08:13.860 SUPPLEMENT REPORT CALL
18-1200935 18-13927 1330 ROBINS ST 2018-12-06 23:48:08.070 ACCIDENT - PROPERTY DAMAGE
18-1200933 18-13926 1525 CLIFTON ST 2018-12-06 23:22:38.963 CRIMINAL MISCHIEF
18-1200932 18-13925 1155 SKYLINE DR 2018-12-06 23:18:04.477 ACCIDENT - PRIVATE PROPERTY
18-1200931 275 HELEN ST 2018-12-06 23:17:20.403 LOUD NOISE-MUSIC
18-1200930 7 MACARTHUR DR 2018-12-06 22:54:58.780 DOMESTIC DISTURBANCE
18-1200928 18-13924 1700 APPALACHAIN DR 2018-12-06 22:42:01.167 DOMESTIC DISTURBANCE
18-1200927 1050 SPENCER ST 2018-12-06 22:39:50.747 LOUD NOISE-MUSIC
18-1200926 200 S HARKRIDER DR 2018-12-06 22:38:07.630 ALARM
18-1200925 18-13923 707 ROBINS ST 2018-12-06 22:33:44.797 CHECKING PERSON
18-1200924 18-13921 1500 S AMITY RD 2018-12-06 22:05:33.397 ACCIDENT - PRIVATE PROPERTY
18-1200923 18-13920 2050 DAVE WARD DR 2018-12-06 22:03:31.433 ACCIDENT - PROPERTY DAMAGE
18-1200921 2150 HARKRIDER ST 2018-12-06 21:28:41.553 LOITERING
18-1200920 515 3RD ST 2018-12-06 21:27:27.810 TRAFFIC PROBLEM-CONTROL
18-1200917 409 S ASH ST 2018-12-06 20:49:25.753 SHOTS FIRED
18-1200916 1300 GUERNSEY DR 2018-12-06 20:43:13.233 ATTEMPT TO CONTACT
18-1200915 2011 ARKANSAS AV 2018-12-06 20:42:14.763 DOMESTIC DISTURBANCE
18-1200913 18-13918 502 6TH ST 2018-12-06 20:29:25.013 THEFT OF SERVICES
18-1200911 220 E OAK ST 2018-12-06 20:18:55.557 911 HANGUP CALL
18-1200910 3899 S REEDY RD 2018-12-06 20:16:00.880 CHECK ON THE WELFARE
18-1200909 3900 DAVE WARD DR 2018-12-06 20:07:33.107 CIVIL MATTER
18-1200908 1300 GUERNSEY DR 2018-12-06 20:04:34.700 CIVIL MATTER
18-1200905 1815 E OAK ST 2018-12-06 19:26:06.917 ALARM - BANK
18-1200903 815 E OAK ST 2018-12-06 19:20:24.973 CHECK ON THE WELFARE
18-1200902 4610 GRAHAM DR 2018-12-06 19:09:57.687 CHECKING VEHICLE
18-1200901 1325 ROBINS ST 2018-12-06 18:58:38.090 LOUD NOISE-MUSIC
18-1200900 935 E OAK ST 2018-12-06 18:53:56.503 SUSPICIOUS PERSON
18-1200899 3900 DAVE WARD DR 2018-12-06 18:51:47.677 CIVIL MATTER
18-1200897 2300 PRINCE ST 2018-12-06 18:12:27.290 RUNAWAY
18-1200896 18-13917 2500 COLLEGE AV 2018-12-06 17:56:49.620 ACCIDENT - HIT AND RUN
18-1200895 475 ROBINS ST 2018-12-06 17:41:26.377 ATTEMPT TO CONTACT
18-1200894 1080 S AMITY RD 2018-12-06 17:41:09.153 CHECK ON THE WELFARE
18-1200893 2200 MEADOWLAKE RD 2018-12-06 17:38:12.137 SUSPICIOUS PERSON
18-1200891 18-13916 800 WALNUT ST 2018-12-06 17:34:24.327 ACCIDENT - PRIVATE PROPERTY
18-1200890 18-13914 1155 DAVE WARD DR 2018-12-06 17:32:32.580 ACCIDENT - PERSONAL INJURY
18-1200889 1150 JIM'S LN 2018-12-06 17:31:35.687 ALARM
18-1200888 18-13913 226 HARKRIDER ST 2018-12-06 17:28:48.203 ACCIDENT - HIT AND RUN
18-1200887 5395 LANTANA DR 2018-12-06 17:25:30.483 ANIMAL BITE
18-1200885 18-13915 2510 PRINCE ST 2018-12-06 17:20:40.660 FIGHT
18-1200884 18-13912 1302 DONAGHEY AV 2018-12-06 17:14:07.753 ACCIDENT - PROPERTY DAMAGE
18-1200882 18-13911 125 I40EB 2018-12-06 17:01:12.793 ACCIDENT - HIT AND RUN
18-1200881 600 SKYLINE DR 2018-12-06 17:00:29.657 ACCIDENT - PROPERTY DAMAGE
18-1200880 18-13909 220 E OAK ST 2018-12-06 16:58:18.660 ACCIDENT - HIT AND RUN
18-1200878 2901 COLLEGE AV 2018-12-06 16:48:01.327 CHECK ON THE WELFARE
18-1200876 814 E OAK ST 2018-12-06 16:43:12.550 RECKLESS DRIVER
18-1200875 5335 LOST CANYON DR 2018-12-06 16:41:59.400 SUPPLEMENT REPORT CALL
18-1200874 18-13910 2425 DAVE WARD DR 2018-12-06 16:33:53.870 ACCIDENT - PRIVATE PROPERTY
18-1200873 18-13907 650 SKYLINE DR 2018-12-06 16:30:50.210 ACCIDENT - PROPERTY DAMAGE
18-1200872 702 S MITCHELL ST 2018-12-06 16:30:21.100 CIVIL STAND BY
18-1200871 18-13908 401 2ND ST 2018-12-06 16:26:13.897 NO CONTACT ORDER VIOLATION
18-1200868 18-13906 1102 OLD MORRILTON HWY 2018-12-06 16:17:28.977 ACCIDENT - PROPERTY DAMAGE
18-1200866 1105 SKYLINE DR 2018-12-06 16:11:44.570 DISTURBANCE
18-1200864 18-13905 2915 DAVE WARD DR 2018-12-06 15:56:24.137 ACCIDENT - PROPERTY DAMAGE
18-1200863 1500 MUSEUM RD 2018-12-06 15:46:57.033 RECKLESS DRIVER
18-1200862 30 BRIER SPRINGS DR 2018-12-06 15:45:19.907 SUPPLEMENT REPORT CALL
18-1200860 18-13904 2740 COLLEGE AV 2018-12-06 15:41:40.223 ACCIDENT - PROPERTY DAMAGE
18-1200859 1105 SKYLINE DR 2018-12-06 15:18:29.597 HARASSMENT
18-1200857 911 S HARKRIDER DR 2018-12-06 15:12:56.437 ACCIDENT - HIT AND RUN
18-1200855 1601 HOGAN LN 2018-12-06 15:07:17.083 ATTEMPT TO CONTACT
18-1200854 18-13901 1318 FRONT ST 2018-12-06 14:57:22.167 ACCIDENT - PERSONAL INJURY
18-1200853 18-13899 2505 PRINCE ST 2018-12-06 14:30:22.343 ACCIDENT - PROPERTY DAMAGE
18-1200852 18-13900 30 BRIER SPRINGS DR 2018-12-06 14:30:07.790 DOMESTIC DISTURBANCE
18-1200849 18-13896 2500 OLD MORRILTON HWY 2018-12-06 14:00:22.443 ACCIDENT - PROPERTY DAMAGE
18-1200848 523 DAVIS ST 2018-12-06 13:59:52.367 ALARM
18-1200847 702 S MITCHELL ST 2018-12-06 13:56:43.697 UNAUTHORIZED USE OF MOTOR VEHICLE
18-1200845 30 BRIER SPRINGS DR 2018-12-06 13:40:34.090 CIVIL MATTER
18-1200844 18-13894 2100 DAVE WARD DR 2018-12-06 13:29:58.660 ACCIDENT - PROPERTY DAMAGE
18-1200843 18-13892 900 OAK ST 2018-12-06 13:23:24.737 LOST PROPERTY
18-1200842 18-13897 125 I40WB 2018-12-06 13:22:09.637 ACCIDENT - PERSONAL INJURY
18-1200841 5335 LOST CANYON DR 2018-12-06 13:21:51.400 SUPPLEMENT REPORT CALL
18-1200838 18-13891 2425 SANDERS ST 2018-12-06 12:54:23.260 THEFT OF PROPERTY
18-1200837 719 MONROE ST 2018-12-06 12:48:20.287 AGENCY ASSIST
18-1200834 18-13889 1525 CLIFTON ST 2018-12-06 12:25:58.707 CRIMINAL MISCHIEF
18-1200832 380 HARKRIDER ST 2018-12-06 12:07:28.123 STALLED VEHICLE
18-1200831 955 SOUTH GERMAN LN 2018-12-06 12:05:15.270 THEFT OF PROPERTY
18-1200830 18-13887 4550 OLD MORRILTON HWY 2018-12-06 12:03:58.283 THEFT OF PROPERTY
18-1200829 18-13888 5335 LOST CANYON DR 2018-12-06 11:53:43.960 ACCIDENT - PROPERTY DAMAGE
18-1200828 128 I40EB 2018-12-06 11:52:56.580 STALLED VEHICLE
18-1200826 207 WILLOW ST 2018-12-06 11:22:58.257 UNAUTHORIZED USE OF MOTOR VEHICLE
18-1200825 1102 OLD MORRILTON HWY 2018-12-06 11:21:31.033 INTOXICATED DRIVER
18-1200824 1620 MIDDLE RD 2018-12-06 11:16:19.713 CHECK ON THE WELFARE
18-1200823 530 S DONAGHEY AV 2018-12-06 11:10:03.077 PROPERTY DAMAGE
18-1200821 18-13885 1702 HARKRIDER ST 2018-12-06 10:56:54.730 ACCIDENT - PROPERTY DAMAGE
18-1200819 640 INGRAM ST 2018-12-06 10:49:53.913 ANIMAL BITE
18-1200818 18-13883 2102 BRUCE ST 2018-12-06 10:40:23.503 ACCIDENT - PROPERTY DAMAGE
18-1200817 18-13884 2630 DONAGHEY AV 2018-12-06 10:35:30.997 CRIMINAL MISCHIEF
18-1200816 18-13882 1105 PRAIRIE ST 2018-12-06 10:32:30.300 FOUND PROPERTY
18-1200815 18-13881 510 SOUTH GERMAN LN 2018-12-06 10:30:06.607 K9 SEARCH-REPORT
18-1200814 1930 HALLOUS ST 2018-12-06 10:17:07.853 ATTEMPT TO CONTACT
18-1200811 915 E OAK ST 2018-12-06 09:45:02.060 CRIMINAL MISCHIEF
18-1200810 18-13878 1710 TYLER ST 2018-12-06 09:40:31.613 CHECK ON THE WELFARE
18-1200809 18-13879 1210 FRONT ST 2018-12-06 09:39:19.773 CRIMINAL MISCHIEF
18-1200807 18-13877 1105 PRAIRIE ST 2018-12-06 09:29:08.133 K9 SEARCH-REPORT
18-1200805 25 SHADY VALLEY DR 2018-12-06 09:17:57.710 ATTEMPT TO CONTACT
18-1200801 18-13876 1835 OTT MEMORIAL BLVD 2018-12-06 09:13:17.840 HARASSING COMMUNICATIONS
18-1200800 530 S DONAGHEY AV 2018-12-06 09:12:23.893 DISTURBANCE
18-1200798 18-13902 1105 SKYLINE DR 2018-12-06 09:03:21.003 911 HANGUP CALL
18-1200795 1450 BLUSTERY WAY 2018-12-06 08:36:40.303 SUSPICIOUS PERSON
18-1200794 18-13875 2300 PRINCE ST 2018-12-06 08:36:23.550 K9 SEARCH-REPORT
18-1200793 1615 ROBINS ST 2018-12-06 08:34:31.057 HARASSMENT
18-1200791 18-13873 1105 PRAIRIE ST 2018-12-06 08:13:23.267 THEFT OF PROPERTY
18-1200788 18-13874 437 DENISON ST 2018-12-06 08:05:58.937 CRIMINAL MISCHIEF
18-1200787 18-13872 1900 FLORENCE MATTISON DR 2018-12-06 07:48:42.377 ACCIDENT - PROPERTY DAMAGE
18-1200786 18-13871 2130 SPRING VALLEY DR 2018-12-06 07:36:30.253 ACCIDENT - PROPERTY DAMAGE
18-1200785 1916 BRUCE ST 2018-12-06 06:28:50.243 BREAKING OR ENTERING
18-1200782 545 E DAVE WARD DR 2018-12-06 05:29:11.130 ALARM - HOLD UP or PANIC
18-1200781 2501 DAVE WARD DR 2018-12-06 04:24:27.927 CITIZEN ASSIST
18-1200778 931 FAULKNER ST 2018-12-06 03:16:50.897 CHECKING BUILDING
18-1200777 501 MONROE ST 2018-12-06 01:58:02.180 CHECKING PERSON
18-1200775 18-13870 777 S EAST GERMAN LN 2018-12-06 01:35:26.327 ACCIDENT - PERSONAL INJURY
18-1200774 1205 FRENCH DR 2018-12-06 01:24:35.187 SHOTS FIRED
18-1200771 675 AMITY RD 2018-12-06 00:38:56.273 ALARM - HOLD UP or PANIC
18-1200769 401 2ND ST 2018-12-05 22:40:04.953 DOMESTIC DISTURBANCE
18-1200766 502 6TH ST 2018-12-05 21:53:24.903 CHECK ON THE WELFARE
18-1200765 165 GRAPEVINE 2018-12-05 21:47:24.800 911 HANGUP CALL
18-1200762 2200 MEADOWLAKE RD 2018-12-05 20:42:05.557 ATTEMPT TO CONTACT
18-1200761 18-13868 502 6TH ST 2018-12-05 20:29:22.523 THEFT OF PROPERTY
18-1200759 18-13869 10 LOWER RIDGE RD 2018-12-05 20:07:40.597 ANIMAL BITE
18-1200758 1500 MUSEUM RD 2018-12-05 20:04:29.943 CHECK ON THE WELFARE
18-1200757 1001 OAK ST 2018-12-05 19:50:27.577 CRIMINAL MISCHIEF
18-1200756 18-13867 150 E OAK ST 2018-12-05 19:48:04.473 ACCIDENT - PRIVATE PROPERTY
18-1200755 1900 TYLER ST 2018-12-05 19:46:54.803 ROAD RAGE
18-1200754 3430 IRBY DR 2018-12-05 19:42:43.467 CIVIL STAND BY
18-1200753 18-13864 1405 S DONAGHEY AV 2018-12-05 19:39:52.597 BATTERY REPORT
18-1200751 18-13865 1001 HARKRIDER ST 2018-12-05 19:30:51.250 CRIMINAL MISCHIEF
18-1200749 1405 S DONAGHEY AV 2018-12-05 18:53:58.847 RUNAWAY
18-1200748 18-13863 1000 MORNINGSIDE DR 2018-12-05 18:36:45.733 ACCIDENT - PROPERTY DAMAGE
18-1200747 530 ENTERPRISE AV 2018-12-05 18:31:10.530 AGENCY ASSIST
18-1200746 235 GRAND FALLS 2018-12-05 18:25:03.220 FRAUD
18-1200745 1105 PRAIRIE ST 2018-12-05 18:24:24.623 ATTEMPT TO CONTACT
18-1200744 1701 DAVE WARD DR 2018-12-05 18:23:15.093 SUSPICIOUS ACTIVITY
18-1200743 1060 S AMITY RD 2018-12-05 18:22:25.533 FOUND PROPERTY
18-1200742 1505 OLD MORRILTON HWY 2018-12-05 18:19:27.907 ALARM
18-1200740 1620 MIDDLE RD 2018-12-05 17:56:02.663 CRIMINAL MISCHIEF
18-1200738 1940 RICH SMITH LN 2018-12-05 17:40:33.057 DOMESTIC DISTURBANCE
18-1200737 18-13862 1325 OLD MORRILTON HWY 2018-12-05 17:39:40.873 ACCIDENT - PRIVATE PROPERTY
18-1200736 18-13861 2600 EMPY TRL 2018-12-05 17:28:05.193 ACCIDENT - PERSONAL INJURY
18-1200735 1525 CLIFTON ST 2018-12-05 17:18:28.747 SUPPLEMENT REPORT CALL
18-1200734 1215 E OAK ST 2018-12-05 16:59:09.147 911 HANGUP CALL
18-1200733 1525 CLIFTON ST 2018-12-05 16:50:12.480 SUPPLEMENT REPORT CALL
18-1200731 702 S MITCHELL ST 2018-12-05 16:47:20.173 SUPPLEMENT REPORT CALL
18-1200729 18-13859 1300 MILL ST 2018-12-05 16:27:20.170 CRIMINAL MISCHIEF
18-1200727 707 ROBINS ST 2018-12-05 16:17:41.413 CHECKING PERSON
18-1200726 2850 LONGBOW LN 2018-12-05 16:07:36.667 SUSPICIOUS VEHICLE
18-1200725 28 GLENDALE DR 2018-12-05 16:05:20.010 ATTEMPT TO CONTACT
18-1200724 1525 CLIFTON ST 2018-12-05 15:51:37.997 ATTEMPT TO CONTACT
18-1200723 1175 MORNINGSIDE DR 2018-12-05 15:47:40.653 911 HANGUP CALL
18-1200722 1505 OLD MORRILTON HWY 2018-12-05 15:43:28.913 STALLED VEHICLE
18-1200719 2510 PRINCE ST 2018-12-05 15:25:55.377 ATTEMPT TO CONTACT
18-1200717 18-13858 702 S MITCHELL ST 2018-12-05 15:20:24.590 BURGLARY
18-1200716 516 1ST ST 2018-12-05 15:19:41.190 CIVIL STAND BY
18-1200715 2101 COLLEGE AV 2018-12-05 15:18:53.967 ACCIDENT - PROPERTY DAMAGE
18-1200713 1600 WASHINGTON AV 2018-12-05 14:55:55.680 VEHICLE TOW
18-1200712 475 ROBINS ST 2018-12-05 14:53:42.593 TRESPASSING
18-1200711 30 BRIER SPRINGS DR 2018-12-05 14:40:01.720 DOMESTIC DISTURBANCE
18-1200708 18-13857 1025 S DONAGHEY AV 2018-12-05 14:28:43.217 ACCIDENT - PRIVATE PROPERTY
18-1200707 475 ROBINS ST 2018-12-05 14:26:45.670 SUPPLEMENT REPORT CALL
18-1200703 810 PARKWAY ST 2018-12-05 14:07:12.260 THEFT OF PROPERTY
18-1200702 18-13856 650 CENTRAL LANDING BLVD 2018-12-05 13:55:37.847 ACCIDENT - PRIVATE PROPERTY
18-1200701 1155 SKYLINE DR 2018-12-05 13:54:45.710 ROAD RAGE
18-1200700 1899 BILL BELL LN 2018-12-05 13:49:58.493 ACCIDENT - PROPERTY DAMAGE
18-1200698 610 4TH AV 2018-12-05 13:45:40.963 ATTEMPT TO CONTACT
18-1200697 1900 E DAVE WARD DR 2018-12-05 13:43:09.530 SUPPLEMENT REPORT CALL
18-1200696 1527 HARDY ST 2018-12-05 13:38:12.080 CHECKING VEHICLE
18-1200695 823 OAK ST 2018-12-05 13:27:33.467 RECKLESS DRIVER
18-1200694 10 WESTIN CIR 2018-12-05 13:20:00.400 ATTEMPT TO CONTACT
18-1200693 1105 PRAIRIE ST 2018-12-05 13:19:30.997 ATTEMPT TO CONTACT
18-1200691 1302 HARKRIDER ST 2018-12-05 13:16:33.963 TRAFFIC PROBLEM-CONTROL
18-1200689 2260 SANDERS ST 2018-12-05 13:11:59.930 SUPPLEMENT REPORT CALL
18-1200687 3660 PRINCE ST 2018-12-05 13:03:22.967 TRAFFIC PROBLEM-CONTROL
18-1200686 322 S ASH ST 2018-12-05 13:00:09.070 CHECKING PERSON
18-1200685 2300 HOGAN LN 2018-12-05 12:50:14.887 SUSPICIOUS VEHICLE
18-1200680 2300 HOGAN LN 2018-12-05 12:21:17.650 SUSPICIOUS VEHICLE
18-1200677 18-13854 1839 TYLER ST 2018-12-05 12:10:16.090 THEFT OF PROPERTY
18-1200672 2401 CHRISTINA LN 2018-12-05 11:51:22.540 DISTURBANCE
18-1200670 18-13853 2630 DONAGHEY AV 2018-12-05 11:49:16.240 CRIMINAL MISCHIEF
18-1200669 18-13852 799 DRAKE DR 2018-12-05 11:46:59.957 SUSPICIOUS PERSON
18-1200668 375 E OAK ST 2018-12-05 11:43:22.457 VEHICLE TOW
18-1200667 2115 DESTIN DR 2018-12-05 11:39:02.933 SUSPICIOUS PERSON
18-1200664 1526 CLIFTON ST 2018-12-05 11:34:19.383 HARASSING COMMUNICATIONS
18-1200662 18-13850 235 FARRIS RD 2018-12-05 11:31:39.857 ACCIDENT - PRIVATE PROPERTY
18-1200659 1060 HOGAN LN 2018-12-05 11:15:59.213 FOUND PROPERTY
18-1200658 2300 HOGAN LN 2018-12-05 11:05:53.273 SUSPICIOUS VEHICLE
18-1200655 1224 JERSEY ST 2018-12-05 09:47:04.680 ATTEMPT TO CONTACT
18-1200654 6 W J SOWDER DR 2018-12-05 09:36:11.857 ATTEMPT TO CONTACT
18-1200653 1500 FREYALDENHOVEN LN 2018-12-05 09:21:56.540 ATTEMPT TO CONTACT
18-1200650 1130 GERTRUDE DR 2018-12-05 09:00:37.343 ALARM
18-1200648 2302 COLLEGE AV 2018-12-05 08:35:48.187 SUPPLEMENT REPORT CALL
18-1200647 825 WILLIAM J CLARK DR 2018-12-05 08:32:09.300 ALARM
18-1200646 550 SALEM RD 2018-12-05 08:32:08.050 ALARM
18-1200641 530 S DONAGHEY AV 2018-12-05 08:00:12.367 ALARM
18-1200639 2100 ROBINSON AV 2018-12-05 07:58:22.103 ACCIDENT - PEDESTRIAN
18-1200638 2799 SALEM RD 2018-12-05 07:43:17.753 TRAFFIC PROBLEM-CONTROL
18-1200637 18-13849 1900 E DAVE WARD DR 2018-12-05 07:38:16.200 ACCIDENT - PROPERTY DAMAGE
18-1200635 2935 PEBBLE BEACH DR 2018-12-05 07:17:37.550 CHECKING PERSON
18-1200634 1405 S DONAGHEY AV 2018-12-05 07:01:56.277 SUPPLEMENT REPORT CALL
18-1200633 18-13848 2260 SANDERS ST 2018-12-05 06:55:26.360 BREAKING OR ENTERING
18-1200631 646 S HARKRIDER DR 2018-12-05 05:14:02.930 ALARM
18-1200628 925 OAK ST 2018-12-05 03:33:54.973 ALARM
18-1200626 18-13847 1825 E OAK ST 2018-12-05 01:50:52.350 ALARM
18-1200625 322 HELEN ST 2018-12-05 01:24:03.990 REPOSSESSION
18-1200624 375 E OAK ST 2018-12-05 00:32:09.623 SUSPICIOUS VEHICLE
18-1200623 3900 DAVE WARD DR 2018-12-05 00:26:08.883 SUSPICIOUS PERSON
18-1200622 18-13846 380 HARKRIDER ST 2018-12-05 00:01:01.003 ALARM
Call Number Case Number Address Call Time Incident Type

General Contacts

POLICE HEADQUARTERS
1105 Prairie Street
Conway, AR 72032

Conway Police Department


  911 (EMERGENCIES ONLY)

  501.450.6120 (non-emergency)

ANONYMOUS TIPS
 Leave a message at 501.450.6135
 Text CONWAY and your tip to 274637 (CRIMES) Click for an Example

   

City of Conway

We, the members of the Conway Police Department, are committed to protecting and serving the citizens of Conway, Arkansas. That is our highest calling, as we pledge to join hands with others in carrying out our sworn duty to uphold the law.

Chief Jody Spradlin

Latest Tweets